Time,TemperatureF,DewpointF,PressureIn,WindDirection,WindDirectionDegrees,WindSpeedMPH,WindSpeedGustMPH,Humidity,HourlyPrecipIn,Conditions,Clouds,dailyrainin,SoftwareType,DateUTC
2013-06-16 00:00:00,58.1,31.9,29.87,WSW,248,12.8,13.4,37,0.00,,,0.00,WUHU216HW,2013-06-16 06:00:00,
2013-06-16 00:04:00,58.0,31.7,29.87,West,270,9.4,13.4,37,0.00,,,0.00,WUHU216HW,2013-06-16 06:04:00,
2013-06-16 00:05:00,58.0,31.7,29.87,West,270,9.8,13.4,37,0.00,,,0.00,WUHU216HW,2013-06-16 06:05:00,
2013-06-16 00:06:00,58.0,31.7,29.87,WSW,248,10.5,13.4,37,0.00,,,0.00,WUHU216HW,2013-06-16 06:06:00,
2013-06-16 00:09:00,58.0,31.7,29.87,West,270,12.8,14.3,37,0.00,,,0.00,WUHU216HW,2013-06-16 06:09:00,
2013-06-16 00:10:00,58.0,31.7,29.87,WSW,248,13.4,14.3,37,0.00,,,0.00,WUHU216HW,2013-06-16 06:10:00,
2013-06-16 00:11:00,58.0,31.7,29.87,West,270,12.1,14.3,37,0.00,,,0.00,WUHU216HW,2013-06-16 06:11:00,
2013-06-16 00:14:00,58.0,31.7,29.88,North,0,8.3,14.3,37,0.00,,,0.00,WUHU216HW,2013-06-16 06:14:00,
2013-06-16 00:15:00,58.0,32.4,29.88,NE,45,11.2,14.3,38,0.00,,,0.00,WUHU216HW,2013-06-16 06:15:00,
2013-06-16 00:16:00,58.0,31.7,29.88,NNE,23,3.4,14.3,37,0.00,,,0.00,WUHU216HW,2013-06-16 06:16:00,
2013-06-16 00:19:00,57.6,31.3,29.88,NNE,23,0.0,13.4,37,0.00,,,0.00,WUHU216HW,2013-06-16 06:19:00,
2013-06-16 00:20:00,57.6,31.3,29.88,NNE,23,0.4,13.4,37,0.00,,,0.00,WUHU216HW,2013-06-16 06:20:00,
2013-06-16 00:21:00,57.4,31.1,29.88,NNW,338,1.6,13.4,37,0.00,,,0.00,WUHU216HW,2013-06-16 06:21:00,
2013-06-16 00:24:00,57.1,31.6,29.88,WNW,293,3.1,11.2,38,0.00,,,0.00,WUHU216HW,2013-06-16 06:24:00,
2013-06-16 00:25:00,56.9,31.4,29.88,West,270,6.0,6.9,38,0.00,,,0.00,WUHU216HW,2013-06-16 06:25:00,
2013-06-16 00:26:00,56.5,31.8,29.88,WNW,293,4.7,6.0,39,0.00,,,0.00,WUHU216HW,2013-06-16 06:26:00,
2013-06-16 00:29:00,55.8,31.9,29.88,WNW,293,4.9,6.0,40,0.00,,,0.00,WUHU216HW,2013-06-16 06:29:00,
2013-06-16 00:30:00,55.6,31.7,29.88,West,270,4.7,6.0,40,0.00,,,0.00,WUHU216HW,2013-06-16 06:30:00,
2013-06-16 00:31:00,55.8,31.9,29.88,WNW,293,4.5,6.0,40,0.00,,,0.00,WUHU216HW,2013-06-16 06:31:00,
2013-06-16 00:35:00,56.0,32.6,29.88,WNW,293,3.6,6.0,41,0.00,,,0.00,WUHU216HW,2013-06-16 06:35:00,
2013-06-16 00:36:00,56.0,32.0,29.88,WNW,293,4.5,6.0,40,0.00,,,0.00,WUHU216HW,2013-06-16 06:36:00,
2013-06-16 00:37:00,56.2,32.1,29.88,WNW,293,4.7,5.8,40,0.00,,,0.00,WUHU216HW,2013-06-16 06:37:00,
2013-06-16 00:40:00,56.5,32.5,29.88,WNW,293,4.7,5.4,40,0.00,,,0.00,WUHU216HW,2013-06-16 06:40:00,
2013-06-16 00:41:00,56.5,32.5,29.88,WNW,293,4.3,5.4,40,0.00,,,0.00,WUHU216HW,2013-06-16 06:41:00,
2013-06-16 00:42:00,56.7,32.0,29.88,WNW,293,5.4,5.4,39,0.00,,,0.00,WUHU216HW,2013-06-16 06:42:00,
2013-06-16 00:45:00,56.9,32.1,29.88,WNW,293,4.5,5.4,39,0.00,,,0.00,WUHU216HW,2013-06-16 06:45:00,
2013-06-16 00:46:00,56.9,32.1,29.88,West,270,4.0,5.4,39,0.00,,,0.00,WUHU216HW,2013-06-16 06:46:00,
2013-06-16 00:47:00,56.9,32.1,29.88,WNW,293,5.4,5.4,39,0.00,,,0.00,WUHU216HW,2013-06-16 06:47:00,
2013-06-16 00:50:00,56.9,32.1,29.88,WNW,293,4.5,5.4,39,0.00,,,0.00,WUHU216HW,2013-06-16 06:50:00,
2013-06-16 00:51:00,56.9,32.1,29.87,West,270,5.4,5.4,39,0.00,,,0.00,WUHU216HW,2013-06-16 06:51:00,
2013-06-16 00:52:00,56.9,32.1,29.87,West,270,3.8,5.4,39,0.00,,,0.00,WUHU216HW,2013-06-16 06:52:00,
2013-06-16 00:55:00,56.3,31.6,29.88,West,270,5.8,6.7,39,0.00,,,0.00,WUHU216HW,2013-06-16 06:55:00,
2013-06-16 00:56:00,56.2,32.1,29.88,West,270,7.4,7.4,40,0.00,,,0.00,WUHU216HW,2013-06-16 06:56:00,
2013-06-16 00:57:00,56.0,32.0,29.88,West,270,4.7,7.4,40,0.00,,,0.00,WUHU216HW,2013-06-16 06:57:00,
2013-06-16 01:00:00,55.6,32.2,29.87,West,270,6.9,7.4,41,0.00,,,0.00,WUHU216HW,2013-06-16 07:00:00,
2013-06-16 01:01:00,55.6,32.2,29.87,West,270,6.9,7.4,41,0.00,,,0.00,WUHU216HW,2013-06-16 07:01:00,
2013-06-16 01:02:00,55.4,32.0,29.87,WNW,293,5.1,7.4,41,0.00,,,0.00,WUHU216HW,2013-06-16 07:02:00,
2013-06-16 01:05:00,55.1,31.8,29.87,WNW,293,5.1,7.4,41,0.00,,,0.00,WUHU216HW,2013-06-16 07:05:00,
2013-06-16 01:06:00,55.1,31.8,29.87,WNW,293,4.9,7.4,41,0.00,,,0.00,WUHU216HW,2013-06-16 07:06:00,
2013-06-16 01:07:00,55.1,32.3,29.87,West,270,5.6,6.9,42,0.00,,,0.00,WUHU216HW,2013-06-16 07:07:00,
2013-06-16 01:10:00,54.7,32.5,29.87,WNW,293,4.0,6.9,43,0.00,,,0.00,WUHU216HW,2013-06-16 07:10:00,
2013-06-16 01:11:00,54.7,32.5,29.87,West,270,4.7,6.9,43,0.00,,,0.00,WUHU216HW,2013-06-16 07:11:00,
2013-06-16 01:12:00,54.5,31.8,29.87,West,270,6.0,6.0,42,0.00,,,0.00,WUHU216HW,2013-06-16 07:12:00,
2013-06-16 01:16:00,54.4,32.2,29.87,WNW,293,4.9,6.3,43,0.00,,,0.00,WUHU216HW,2013-06-16 07:16:00,
2013-06-16 01:17:00,54.4,32.2,29.87,West,270,6.3,6.3,43,0.00,,,0.00,WUHU216HW,2013-06-16 07:17:00,
2013-06-16 01:18:00,54.4,32.2,29.87,West,270,4.7,6.3,43,0.00,,,0.00,WUHU216HW,2013-06-16 07:18:00,
2013-06-16 01:21:00,54.2,32.0,29.87,WNW,293,6.3,6.3,43,0.00,,,0.00,WUHU216HW,2013-06-16 07:21:00,
2013-06-16 01:22:00,54.2,32.6,29.87,WNW,293,6.0,6.3,44,0.00,,,0.00,WUHU216HW,2013-06-16 07:22:00,
2013-06-16 01:23:00,54.0,32.4,29.87,West,270,5.6,6.3,44,0.00,,,0.00,WUHU216HW,2013-06-16 07:23:00,
2013-06-16 01:26:00,53.1,32.8,29.87,West,270,9.2,9.2,46,0.00,,,0.00,WUHU216HW,2013-06-16 07:26:00,
2013-06-16 01:27:00,52.9,32.1,29.87,West,270,8.5,9.2,45,0.00,,,0.00,WUHU216HW,2013-06-16 07:27:00,
2013-06-16 01:28:00,52.7,31.9,29.87,WSW,248,8.7,9.2,45,0.00,,,0.00,WUHU216HW,2013-06-16 07:28:00,
2013-06-16 01:31:00,52.2,31.4,29.87,WSW,248,8.9,9.2,45,0.00,,,0.00,WUHU216HW,2013-06-16 07:31:00,
2013-06-16 01:32:00,52.2,31.4,29.87,West,270,9.8,9.8,45,0.00,,,0.00,WUHU216HW,2013-06-16 07:32:00,
2013-06-16 01:33:00,52.2,31.4,29.87,West,270,8.3,9.8,45,0.00,,,0.00,WUHU216HW,2013-06-16 07:33:00,
2013-06-16 01:36:00,52.6,32.2,29.88,West,270,7.6,11.0,46,0.00,,,0.00,WUHU216HW,2013-06-16 07:36:00,
2013-06-16 01:37:00,52.7,32.4,29.88,West,270,8.7,11.0,46,0.00,,,0.00,WUHU216HW,2013-06-16 07:37:00,
2013-06-16 01:38:00,52.9,32.6,29.88,West,270,10.5,11.0,46,0.00,,,0.00,WUHU216HW,2013-06-16 07:38:00,
2013-06-16 01:41:00,53.3,32.3,29.88,West,270,8.5,11.0,45,0.00,,,0.00,WUHU216HW,2013-06-16 07:41:00,
2013-06-16 01:42:00,53.5,32.0,29.88,West,270,6.7,11.0,44,0.00,,,0.00,WUHU216HW,2013-06-16 07:42:00,
2013-06-16 01:43:00,53.6,32.1,29.88,West,270,8.1,11.0,44,0.00,,,0.00,WUHU216HW,2013-06-16 07:43:00,
2013-06-16 01:47:00,54.2,32.0,29.88,West,270,9.8,10.7,43,0.00,,,0.00,WUHU216HW,2013-06-16 07:47:00,
2013-06-16 01:48:00,54.2,32.0,29.88,West,270,10.5,10.7,43,0.00,,,0.00,WUHU216HW,2013-06-16 07:48:00,
2013-06-16 01:52:00,54.0,32.4,29.88,West,270,9.2,10.5,44,0.00,,,0.00,WUHU216HW,2013-06-16 07:52:00,
2013-06-16 01:53:00,54.0,32.4,29.88,West,270,8.9,10.5,44,0.00,,,0.00,WUHU216HW,2013-06-16 07:53:00,
2013-06-16 01:54:00,53.8,32.3,29.88,West,270,8.7,10.5,44,0.00,,,0.00,WUHU216HW,2013-06-16 07:54:00,
2013-06-16 01:57:00,54.0,31.9,29.88,West,270,9.8,11.2,43,0.00,,,0.00,WUHU216HW,2013-06-16 07:57:00,
2013-06-16 01:58:00,54.2,32.0,29.88,West,270,9.6,11.2,43,0.00,,,0.00,WUHU216HW,2013-06-16 07:58:00,
2013-06-16 01:59:00,54.0,31.9,29.88,West,270,11.4,11.4,43,0.00,,,0.00,WUHU216HW,2013-06-16 07:59:00,
2013-06-16 02:02:00,53.8,32.3,29.88,West,270,9.2,11.4,44,0.00,,,0.00,WUHU216HW,2013-06-16 08:02:00,
2013-06-16 02:03:00,53.8,31.7,29.88,WNW,293,5.8,11.4,43,0.00,,,0.00,WUHU216HW,2013-06-16 08:03:00,
2013-06-16 02:04:00,54.0,31.9,29.88,West,270,11.4,11.4,43,0.00,,,0.00,WUHU216HW,2013-06-16 08:04:00,
2013-06-16 02:05:00,54.0,31.9,29.88,West,270,11.4,11.4,43,0.00,,,0.00,WUHU216HW,2013-06-16 08:05:00,
2013-06-16 02:07:00,53.8,32.3,29.88,West,270,9.8,11.4,44,0.00,,,0.00,WUHU216HW,2013-06-16 08:07:00,
2013-06-16 02:08:00,53.6,32.1,29.88,West,270,10.5,11.4,44,0.00,,,0.00,WUHU216HW,2013-06-16 08:08:00,
2013-06-16 02:10:00,53.6,32.1,29.88,West,270,12.1,12.1,44,0.00,,,0.00,WUHU216HW,2013-06-16 08:10:00,
2013-06-16 02:12:00,53.6,32.1,29.88,WNW,293,7.6,12.1,44,0.00,,,0.00,WUHU216HW,2013-06-16 08:12:00,
2013-06-16 02:13:00,53.6,32.1,29.88,West,270,11.2,12.1,44,0.00,,,0.00,WUHU216HW,2013-06-16 08:13:00,
2013-06-16 02:14:00,53.6,32.1,29.88,West,270,9.4,12.1,44,0.00,,,0.00,WUHU216HW,2013-06-16 08:14:00,
2013-06-16 02:15:00,53.5,32.5,29.89,West,270,9.2,12.1,45,0.00,,,0.00,WUHU216HW,2013-06-16 08:15:00,
2013-06-16 02:17:00,53.1,31.6,29.89,West,270,6.9,12.1,44,0.00,,,0.00,WUHU216HW,2013-06-16 08:17:00,
2013-06-16 02:18:00,53.1,31.6,29.89,WNW,293,6.3,12.1,44,0.00,,,0.00,WUHU216HW,2013-06-16 08:18:00,
2013-06-16 02:19:00,53.1,31.6,29.89,West,270,8.1,12.1,44,0.00,,,0.00,WUHU216HW,2013-06-16 08:19:00,
2013-06-16 02:20:00,53.3,31.8,29.89,WNW,293,8.5,12.1,44,0.00,,,0.00,WUHU216HW,2013-06-16 08:20:00,
2013-06-16 02:22:00,53.6,31.6,29.89,WNW,293,8.5,11.4,43,0.00,,,0.00,WUHU216HW,2013-06-16 08:22:00,
2013-06-16 02:23:00,53.6,31.6,29.89,West,270,6.0,11.4,43,0.00,,,0.00,WUHU216HW,2013-06-16 08:23:00,
2013-06-16 02:24:00,53.8,31.7,29.88,West,270,10.3,11.4,43,0.00,,,0.00,WUHU216HW,2013-06-16 08:24:00,
2013-06-16 02:25:00,54.0,31.9,29.89,West,270,9.2,11.4,43,0.00,,,0.00,WUHU216HW,2013-06-16 08:25:00,
2013-06-16 02:27:00,54.0,31.9,29.89,WNW,293,11.4,11.4,43,0.00,,,0.00,WUHU216HW,2013-06-16 08:27:00,
2013-06-16 02:29:00,54.0,31.9,29.89,West,270,12.1,12.1,43,0.00,,,0.00,WUHU216HW,2013-06-16 08:29:00,
2013-06-16 02:30:00,54.0,31.9,29.89,West,270,10.5,12.1,43,0.00,,,0.00,WUHU216HW,2013-06-16 08:30:00,
2013-06-16 02:31:00,54.2,32.0,29.89,WNW,293,10.3,12.1,43,0.00,,,0.00,WUHU216HW,2013-06-16 08:31:00,
2013-06-16 02:32:00,54.2,31.5,29.89,West,270,9.8,12.1,42,0.00,,,0.00,WUHU216HW,2013-06-16 08:32:00,
2013-06-16 02:34:00,54.4,31.7,29.89,WNW,293,11.4,12.1,42,0.00,,,0.00,WUHU216HW,2013-06-16 08:34:00,
2013-06-16 02:35:00,54.4,31.1,29.89,West,270,8.5,12.3,41,0.00,,,0.00,WUHU216HW,2013-06-16 08:35:00,
2013-06-16 02:36:00,54.7,31.4,29.89,WNW,293,9.6,12.3,41,0.00,,,0.00,WUHU216HW,2013-06-16 08:36:00,
2013-06-16 02:37:00,54.7,31.4,29.89,WNW,293,8.1,12.3,41,0.00,,,0.00,WUHU216HW,2013-06-16 08:37:00,
2013-06-16 02:39:00,54.9,31.1,29.89,West,270,9.2,12.3,40,0.00,,,0.00,WUHU216HW,2013-06-16 08:39:00,
2013-06-16 02:40:00,54.9,31.1,29.89,West,270,11.2,12.3,40,0.00,,,0.00,WUHU216HW,2013-06-16 08:40:00,
2013-06-16 02:42:00,55.1,31.8,29.89,West,270,11.0,12.3,41,0.00,,,0.00,WUHU216HW,2013-06-16 08:42:00,
2013-06-16 02:43:00,55.1,31.1,29.89,West,270,8.5,12.3,40,0.00,,,0.00,WUHU216HW,2013-06-16 08:43:00,
2013-06-16 02:44:00,55.1,31.1,29.89,West,270,7.8,12.3,40,0.00,,,0.00,WUHU216HW,2013-06-16 08:44:00,
2013-06-16 02:45:00,55.1,31.1,29.89,WNW,293,4.9,12.1,40,0.00,,,0.00,WUHU216HW,2013-06-16 08:45:00,
2013-06-16 02:46:00,55.1,31.1,29.89,WNW,293,5.4,12.1,40,0.00,,,0.00,WUHU216HW,2013-06-16 08:46:00,
2013-06-16 02:47:00,55.1,31.8,29.89,West,270,7.6,12.1,41,0.00,,,0.00,WUHU216HW,2013-06-16 08:47:00,
2013-06-16 02:48:00,55.1,31.1,29.89,West,270,6.7,12.1,40,0.00,,,0.00,WUHU216HW,2013-06-16 08:48:00,
2013-06-16 02:49:00,55.1,31.1,29.89,West,270,6.3,12.1,40,0.00,,,0.00,WUHU216HW,2013-06-16 08:49:00,
2013-06-16 02:50:00,55.1,31.1,29.89,WNW,293,5.6,12.1,40,0.00,,,0.00,WUHU216HW,2013-06-16 08:50:00,
2013-06-16 02:51:00,55.1,31.8,29.90,NW,315,7.4,12.1,41,0.00,,,0.00,WUHU216HW,2013-06-16 08:51:00,
2013-06-16 02:52:00,54.9,31.1,29.90,NW,315,5.6,11.0,40,0.00,,,0.00,WUHU216HW,2013-06-16 08:52:00,
2013-06-16 02:53:00,54.7,31.4,29.89,NW,315,6.0,9.2,41,0.00,,,0.00,WUHU216HW,2013-06-16 08:53:00,
2013-06-16 02:54:00,54.7,31.4,29.89,WSW,248,6.3,9.2,41,0.00,,,0.00,WUHU216HW,2013-06-16 08:54:00,
2013-06-16 02:55:00,54.5,31.2,29.90,West,270,6.0,9.2,41,0.00,,,0.00,WUHU216HW,2013-06-16 08:55:00,
2013-06-16 02:56:00,54.5,31.2,29.89,NW,315,5.8,9.2,41,0.00,,,0.00,WUHU216HW,2013-06-16 08:56:00,
2013-06-16 02:57:00,54.5,31.8,29.90,NW,315,5.8,9.2,42,0.00,,,0.00,WUHU216HW,2013-06-16 08:57:00,
2013-06-16 02:58:00,54.5,31.8,29.90,NW,315,5.4,9.2,42,0.00,,,0.00,WUHU216HW,2013-06-16 08:58:00,
2013-06-16 02:59:00,54.4,31.7,29.90,NW,315,7.4,7.4,42,0.00,,,0.00,WUHU216HW,2013-06-16 08:59:00,
2013-06-16 03:00:00,54.2,31.5,29.90,NW,315,5.1,7.4,42,0.00,,,0.00,WUHU216HW,2013-06-16 09:00:00,
2013-06-16 03:01:00,54.0,31.3,29.90,WNW,293,8.3,8.3,42,0.00,,,0.00,WUHU216HW,2013-06-16 09:01:00,
2013-06-16 03:02:00,54.0,31.3,29.90,West,270,7.6,8.3,42,0.00,,,0.00,WUHU216HW,2013-06-16 09:02:00,
2013-06-16 03:03:00,54.0,31.3,29.90,WNW,293,8.5,8.5,42,0.00,,,0.00,WUHU216HW,2013-06-16 09:03:00,
2013-06-16 03:04:00,54.2,31.5,29.90,West,270,6.9,9.4,42,0.00,,,0.00,WUHU216HW,2013-06-16 09:04:00,
2013-06-16 03:06:00,54.2,31.0,29.90,West,270,7.6,9.4,41,0.00,,,0.00,WUHU216HW,2013-06-16 09:06:00,
2013-06-16 03:07:00,54.4,31.1,29.90,WNW,293,7.6,9.4,41,0.00,,,0.00,WUHU216HW,2013-06-16 09:07:00,
2013-06-16 03:08:00,54.4,31.1,29.90,West,270,7.6,9.4,41,0.00,,,0.00,WUHU216HW,2013-06-16 09:08:00,
2013-06-16 03:10:00,54.5,31.2,29.89,WNW,293,5.1,9.4,41,0.00,,,0.00,WUHU216HW,2013-06-16 09:10:00,
2013-06-16 03:11:00,54.7,31.4,29.89,WNW,293,8.7,9.4,41,0.00,,,0.00,WUHU216HW,2013-06-16 09:11:00,
2013-06-16 03:12:00,54.7,31.4,29.90,NW,315,8.5,9.4,41,0.00,,,0.00,WUHU216HW,2013-06-16 09:12:00,
2013-06-16 03:13:00,54.7,31.4,29.90,WNW,293,8.3,9.4,41,0.00,,,0.00,WUHU216HW,2013-06-16 09:13:00,
2013-06-16 03:15:00,54.7,31.4,29.90,WNW,293,7.6,9.2,41,0.00,,,0.00,WUHU216HW,2013-06-16 09:15:00,
2013-06-16 03:16:00,54.7,31.4,29.90,West,270,6.3,9.2,41,0.00,,,0.00,WUHU216HW,2013-06-16 09:16:00,
2013-06-16 03:18:00,54.7,31.4,29.90,West,270,7.4,9.2,41,0.00,,,0.00,WUHU216HW,2013-06-16 09:18:00,
2013-06-16 03:21:00,54.7,31.4,29.90,WNW,293,8.1,9.2,41,0.00,,,0.00,WUHU216HW,2013-06-16 09:21:00,
2013-06-16 03:23:00,54.7,31.4,29.90,West,270,8.3,9.2,41,0.00,,,0.00,WUHU216HW,2013-06-16 09:23:00,
2013-06-16 03:26:00,54.4,31.1,29.90,WNW,293,6.3,9.2,41,0.00,,,0.00,WUHU216HW,2013-06-16 09:26:00,
2013-06-16 03:27:00,54.4,31.1,29.90,West,270,8.3,9.2,41,0.00,,,0.00,WUHU216HW,2013-06-16 09:27:00,
2013-06-16 03:28:00,54.2,31.0,29.90,West,270,9.8,9.8,41,0.00,,,0.00,WUHU216HW,2013-06-16 09:28:00,
2013-06-16 03:31:00,54.0,31.3,29.90,West,270,7.8,9.8,42,0.00,,,0.00,WUHU216HW,2013-06-16 09:31:00,
2013-06-16 03:32:00,54.0,31.3,29.89,West,270,7.4,9.8,42,0.00,,,0.00,WUHU216HW,2013-06-16 09:32:00,
2013-06-16 03:33:00,54.0,31.3,29.89,WNW,293,6.0,9.8,42,0.00,,,0.00,WUHU216HW,2013-06-16 09:33:00,
2013-06-16 03:36:00,53.6,31.6,29.90,West,270,7.6,9.8,43,0.00,,,0.00,WUHU216HW,2013-06-16 09:36:00,
2013-06-16 03:37:00,53.6,31.6,29.90,West,270,7.6,9.8,43,0.00,,,0.00,WUHU216HW,2013-06-16 09:37:00,
2013-06-16 03:38:00,53.5,31.4,29.90,WNW,293,6.0,9.8,43,0.00,,,0.00,WUHU216HW,2013-06-16 09:38:00,
2013-06-16 03:39:00,53.5,31.4,29.89,WNW,293,8.9,9.6,43,0.00,,,0.00,WUHU216HW,2013-06-16 09:39:00,
2013-06-16 03:42:00,53.3,31.8,29.90,West,270,8.1,10.3,44,0.00,,,0.00,WUHU216HW,2013-06-16 09:42:00,
2013-06-16 03:43:00,53.1,31.6,29.90,West,270,8.7,10.7,44,0.00,,,0.00,WUHU216HW,2013-06-16 09:43:00,
2013-06-16 03:44:00,52.9,31.5,29.90,West,270,8.1,10.7,44,0.00,,,0.00,WUHU216HW,2013-06-16 09:44:00,
2013-06-16 03:47:00,52.7,31.3,29.90,West,270,8.9,11.2,44,0.00,,,0.00,WUHU216HW,2013-06-16 09:47:00,
2013-06-16 03:48:00,52.6,31.1,29.90,West,270,10.1,11.2,44,0.00,,,0.00,WUHU216HW,2013-06-16 09:48:00,
2013-06-16 03:49:00,52.7,31.9,29.89,WSW,248,9.8,11.2,45,0.00,,,0.00,WUHU216HW,2013-06-16 09:49:00,
2013-06-16 03:52:00,52.7,31.9,29.89,WSW,248,10.5,12.1,45,0.00,,,0.00,WUHU216HW,2013-06-16 09:52:00,
2013-06-16 03:53:00,52.7,31.9,29.89,WSW,248,8.5,12.1,45,0.00,,,0.00,WUHU216HW,2013-06-16 09:53:00,
2013-06-16 03:54:00,52.6,31.7,29.89,WSW,248,8.5,12.1,45,0.00,,,0.00,WUHU216HW,2013-06-16 09:54:00,
2013-06-16 03:55:00,52.6,31.7,29.89,West,270,9.6,12.1,45,0.00,,,0.00,WUHU216HW,2013-06-16 09:55:00,
2013-06-16 03:57:00,52.6,31.7,29.89,West,270,8.7,12.1,45,0.00,,,0.00,WUHU216HW,2013-06-16 09:57:00,
2013-06-16 03:58:00,52.6,31.7,29.89,West,270,13.0,13.0,45,0.00,,,0.00,WUHU216HW,2013-06-16 09:58:00,
2013-06-16 03:59:00,52.6,31.7,29.89,West,270,9.8,13.0,45,0.00,,,0.00,WUHU216HW,2013-06-16 09:59:00,
2013-06-16 04:00:00,52.6,31.7,29.89,West,270,8.9,13.0,45,0.00,,,0.00,WUHU216HW,2013-06-16 10:00:00,
2013-06-16 04:03:00,52.4,31.0,29.89,West,270,10.5,13.0,44,0.00,,,0.00,WUHU216HW,2013-06-16 10:03:00,
2013-06-16 04:04:00,52.6,31.7,29.89,West,270,8.7,13.0,45,0.00,,,0.00,WUHU216HW,2013-06-16 10:04:00,
2013-06-16 04:05:00,52.6,31.7,29.89,West,270,9.8,13.0,45,0.00,,,0.00,WUHU216HW,2013-06-16 10:05:00,
2013-06-16 04:08:00,52.6,31.7,29.89,West,270,9.2,13.0,45,0.00,,,0.00,WUHU216HW,2013-06-16 10:08:00,
2013-06-16 04:09:00,52.7,31.9,29.89,West,270,11.2,12.3,45,0.00,,,0.00,WUHU216HW,2013-06-16 10:09:00,
2013-06-16 04:10:00,52.7,31.3,29.89,WNW,293,11.0,12.3,44,0.00,,,0.00,WUHU216HW,2013-06-16 10:10:00,
2013-06-16 04:13:00,52.9,31.5,29.89,WNW,293,7.6,11.2,44,0.00,,,0.00,WUHU216HW,2013-06-16 10:13:00,
2013-06-16 04:14:00,52.9,31.5,29.89,WNW,293,8.3,11.2,44,0.00,,,0.00,WUHU216HW,2013-06-16 10:14:00,
2013-06-16 04:15:00,53.1,31.6,29.89,WNW,293,7.4,11.2,44,0.00,,,0.00,WUHU216HW,2013-06-16 10:15:00,
2013-06-16 04:16:00,53.1,31.6,29.89,WNW,293,8.3,11.2,44,0.00,,,0.00,WUHU216HW,2013-06-16 10:16:00,
2013-06-16 04:18:00,53.1,31.6,29.89,NW,315,9.4,11.2,44,0.00,,,0.00,WUHU216HW,2013-06-16 10:18:00,
2013-06-16 04:19:00,53.1,31.6,29.89,WNW,293,7.4,11.2,44,0.00,,,0.00,WUHU216HW,2013-06-16 10:19:00,
2013-06-16 04:20:00,53.1,31.6,29.89,West,270,10.7,11.2,44,0.00,,,0.00,WUHU216HW,2013-06-16 10:20:00,
2013-06-16 04:21:00,53.3,31.8,29.89,West,270,11.2,11.2,44,0.00,,,0.00,WUHU216HW,2013-06-16 10:21:00,
2013-06-16 04:23:00,53.3,31.8,29.89,West,270,8.5,11.2,44,0.00,,,0.00,WUHU216HW,2013-06-16 10:23:00,
2013-06-16 04:24:00,53.3,31.8,29.89,West,270,6.9,11.2,44,0.00,,,0.00,WUHU216HW,2013-06-16 10:24:00,
2013-06-16 04:25:00,53.3,31.8,29.89,West,270,8.7,11.2,44,0.00,,,0.00,WUHU216HW,2013-06-16 10:25:00,
2013-06-16 04:26:00,53.3,31.8,29.89,West,270,10.5,11.2,44,0.00,,,0.00,WUHU216HW,2013-06-16 10:26:00,
2013-06-16 04:28:00,53.1,31.6,29.89,WNW,293,11.2,13.0,44,0.00,,,0.00,WUHU216HW,2013-06-16 10:28:00,
2013-06-16 04:29:00,53.1,31.6,29.89,WSW,248,10.5,13.0,44,0.00,,,0.00,WUHU216HW,2013-06-16 10:29:00,
2013-06-16 04:30:00,53.1,31.6,29.89,West,270,10.5,13.0,44,0.00,,,0.00,WUHU216HW,2013-06-16 10:30:00,
2013-06-16 04:32:00,52.9,31.5,29.89,West,270,12.3,13.0,44,0.00,,,0.00,WUHU216HW,2013-06-16 10:32:00,
2013-06-16 04:34:00,52.9,32.1,29.89,West,270,9.6,13.0,45,0.00,,,0.00,WUHU216HW,2013-06-16 10:34:00,
2013-06-16 04:35:00,52.9,32.1,29.89,West,270,12.1,13.0,45,0.00,,,0.00,WUHU216HW,2013-06-16 10:35:00,
2013-06-16 04:37:00,52.9,32.1,29.89,West,270,12.5,13.0,45,0.00,,,0.00,WUHU216HW,2013-06-16 10:37:00,
2013-06-16 04:39:00,52.7,31.9,29.89,WSW,248,11.0,12.8,45,0.00,,,0.00,WUHU216HW,2013-06-16 10:39:00,
2013-06-16 04:40:00,52.6,31.7,29.89,West,270,10.7,12.8,45,0.00,,,0.00,WUHU216HW,2013-06-16 10:40:00,
2013-06-16 04:42:00,52.4,31.5,29.89,West,270,11.9,12.8,45,0.00,,,0.00,WUHU216HW,2013-06-16 10:42:00,
2013-06-16 04:44:00,52.4,31.5,29.89,West,270,9.2,12.8,45,0.00,,,0.00,WUHU216HW,2013-06-16 10:44:00,
2013-06-16 04:45:00,52.2,31.4,29.89,West,270,9.4,12.8,45,0.00,,,0.00,WUHU216HW,2013-06-16 10:45:00,
2013-06-16 04:46:00,52.2,31.4,29.89,WNW,293,9.2,12.8,45,0.00,,,0.00,WUHU216HW,2013-06-16 10:46:00,
2013-06-16 04:47:00,52.2,31.4,29.89,WSW,248,8.5,12.3,45,0.00,,,0.00,WUHU216HW,2013-06-16 10:47:00,
2013-06-16 04:49:00,52.2,31.4,29.89,West,270,7.8,12.3,45,0.00,,,0.00,WUHU216HW,2013-06-16 10:49:00,
2013-06-16 04:50:00,52.2,31.4,29.89,WNW,293,9.2,12.3,45,0.00,,,0.00,WUHU216HW,2013-06-16 10:50:00,
2013-06-16 04:51:00,52.2,31.4,29.89,WNW,293,9.2,12.3,45,0.00,,,0.00,WUHU216HW,2013-06-16 10:51:00,
2013-06-16 04:52:00,52.2,31.4,29.89,West,270,8.9,11.6,45,0.00,,,0.00,WUHU216HW,2013-06-16 10:52:00,
2013-06-16 04:54:00,52.2,31.4,29.89,West,270,10.7,11.6,45,0.00,,,0.00,WUHU216HW,2013-06-16 10:54:00,
2013-06-16 04:55:00,52.2,31.4,29.89,West,270,9.2,12.8,45,0.00,,,0.00,WUHU216HW,2013-06-16 10:55:00,
2013-06-16 04:56:00,52.2,31.4,29.89,West,270,9.2,12.8,45,0.00,,,0.00,WUHU216HW,2013-06-16 10:56:00,
2013-06-16 04:57:00,52.2,31.4,29.89,West,270,10.7,12.8,45,0.00,,,0.00,WUHU216HW,2013-06-16 10:57:00,
2013-06-16 04:59:00,52.2,31.4,29.89,WNW,293,11.4,12.8,45,0.00,,,0.00,WUHU216HW,2013-06-16 10:59:00,
2013-06-16 05:00:00,52.2,31.4,29.89,West,270,10.3,12.8,45,0.00,,,0.00,WUHU216HW,2013-06-16 11:00:00,
2013-06-16 05:01:00,52.2,31.4,29.89,West,270,12.5,12.8,45,0.00,,,0.00,WUHU216HW,2013-06-16 11:01:00,
2013-06-16 05:03:00,52.2,31.4,29.89,West,270,13.4,13.4,45,0.00,,,0.00,WUHU216HW,2013-06-16 11:03:00,
2013-06-16 05:04:00,52.2,31.4,29.89,WSW,248,11.2,13.4,45,0.00,,,0.00,WUHU216HW,2013-06-16 11:04:00,
2013-06-16 05:05:00,52.2,31.4,29.89,WSW,248,11.2,13.4,45,0.00,,,0.00,WUHU216HW,2013-06-16 11:05:00,
2013-06-16 05:06:00,52.2,31.4,29.89,West,270,8.9,13.4,45,0.00,,,0.00,WUHU216HW,2013-06-16 11:06:00,
2013-06-16 05:08:00,52.2,31.4,29.89,WSW,248,10.5,13.4,45,0.00,,,0.00,WUHU216HW,2013-06-16 11:08:00,
2013-06-16 05:09:00,52.2,31.4,29.89,West,270,10.1,13.4,45,0.00,,,0.00,WUHU216HW,2013-06-16 11:09:00,
2013-06-16 05:10:00,52.2,31.4,29.89,WNW,293,11.4,13.4,45,0.00,,,0.00,WUHU216HW,2013-06-16 11:10:00,
2013-06-16 05:11:00,52.2,31.4,29.89,West,270,10.5,13.4,45,0.00,,,0.00,WUHU216HW,2013-06-16 11:11:00,
2013-06-16 05:13:00,52.2,31.4,29.90,West,270,9.8,13.0,45,0.00,,,0.00,WUHU216HW,2013-06-16 11:13:00,
2013-06-16 05:14:00,52.2,31.4,29.89,WNW,293,12.8,13.4,45,0.00,,,0.00,WUHU216HW,2013-06-16 11:14:00,
2013-06-16 05:15:00,52.2,31.4,29.89,West,270,13.0,13.4,45,0.00,,,0.00,WUHU216HW,2013-06-16 11:15:00,
2013-06-16 05:16:00,52.2,31.4,29.89,WNW,293,12.3,13.4,45,0.00,,,0.00,WUHU216HW,2013-06-16 11:16:00,
2013-06-16 05:18:00,52.2,31.4,29.89,WSW,248,9.6,13.4,45,0.00,,,0.00,WUHU216HW,2013-06-16 11:18:00,
2013-06-16 05:19:00,52.2,31.4,29.89,West,270,11.4,13.4,45,0.00,,,0.00,WUHU216HW,2013-06-16 11:19:00,
2013-06-16 05:20:00,52.2,31.4,29.90,West,270,11.9,13.4,45,0.00,,,0.00,WUHU216HW,2013-06-16 11:20:00,
2013-06-16 05:21:00,52.2,31.4,29.90,WSW,248,10.7,13.4,45,0.00,,,0.00,WUHU216HW,2013-06-16 11:21:00,
2013-06-16 05:23:00,52.2,31.4,29.90,West,270,11.9,13.2,45,0.00,,,0.00,WUHU216HW,2013-06-16 11:23:00,
2013-06-16 05:25:00,52.2,31.4,29.90,West,270,12.1,13.2,45,0.00,,,0.00,WUHU216HW,2013-06-16 11:25:00,
2013-06-16 05:26:00,52.2,31.4,29.90,West,270,11.2,12.5,45,0.00,,,0.00,WUHU216HW,2013-06-16 11:26:00,
2013-06-16 05:27:00,52.2,31.4,29.90,West,270,10.5,12.5,45,0.00,,,0.00,WUHU216HW,2013-06-16 11:27:00,
2013-06-16 05:29:00,52.0,31.8,29.90,West,270,9.4,12.5,46,0.00,,,0.00,WUHU216HW,2013-06-16 11:29:00,
2013-06-16 05:30:00,52.0,31.8,29.90,WNW,293,10.3,12.5,46,0.00,,,0.00,WUHU216HW,2013-06-16 11:30:00,
2013-06-16 05:31:00,51.8,31.6,29.90,West,270,11.9,12.5,46,0.00,,,0.00,WUHU216HW,2013-06-16 11:31:00,
2013-06-16 05:32:00,51.8,31.6,29.90,WSW,248,9.4,12.5,46,0.00,,,0.00,WUHU216HW,2013-06-16 11:32:00,
2013-06-16 05:34:00,51.8,31.6,29.90,WSW,248,9.2,12.5,46,0.00,,,0.00,WUHU216HW,2013-06-16 11:34:00,
2013-06-16 05:35:00,51.8,31.6,29.90,West,270,10.1,12.5,46,0.00,,,0.00,WUHU216HW,2013-06-16 11:35:00,
2013-06-16 05:37:00,51.8,31.6,29.90,WSW,248,11.0,12.1,46,0.00,,,0.00,WUHU216HW,2013-06-16 11:37:00,
2013-06-16 05:38:00,51.8,31.6,29.90,WSW,248,9.8,12.1,46,0.00,,,0.00,WUHU216HW,2013-06-16 11:38:00,
2013-06-16 05:39:00,51.8,31.6,29.90,WSW,248,9.6,11.9,46,0.00,,,0.00,WUHU216HW,2013-06-16 11:39:00,
2013-06-16 05:40:00,51.7,31.4,29.90,SW,225,9.2,11.9,46,0.00,,,0.00,WUHU216HW,2013-06-16 11:40:00,
2013-06-16 05:41:00,51.7,31.4,29.90,South,180,6.7,11.9,46,0.00,,,0.00,WUHU216HW,2013-06-16 11:41:00,
2013-06-16 05:42:00,51.7,32.1,29.90,SSE,158,3.1,11.6,47,0.00,,,0.00,WUHU216HW,2013-06-16 11:42:00,
2013-06-16 05:43:00,51.5,31.9,29.90,ESE,113,3.8,11.6,47,0.00,,,0.00,WUHU216HW,2013-06-16 11:43:00,
2013-06-16 05:45:00,51.5,32.4,29.90,SW,225,1.8,11.2,48,0.00,,,0.00,WUHU216HW,2013-06-16 11:45:00,
2013-06-16 05:46:00,51.5,32.4,29.90,South,180,6.0,11.2,48,0.00,,,0.00,WUHU216HW,2013-06-16 11:46:00,
2013-06-16 05:47:00,51.5,32.4,29.90,SSE,158,8.1,11.0,48,0.00,,,0.00,WUHU216HW,2013-06-16 11:47:00,
2013-06-16 05:48:00,51.3,32.8,29.90,South,180,4.0,11.0,49,0.00,,,0.00,WUHU216HW,2013-06-16 11:48:00,
2013-06-16 05:50:00,51.3,32.8,29.90,South,180,5.4,9.2,49,0.00,,,0.00,WUHU216HW,2013-06-16 11:50:00,
2013-06-16 05:51:00,51.3,32.2,29.90,South,180,1.8,8.1,48,0.00,,,0.00,WUHU216HW,2013-06-16 11:51:00,
2013-06-16 05:52:00,51.3,32.2,29.91,WSW,248,1.6,8.1,48,0.00,,,0.00,WUHU216HW,2013-06-16 11:52:00,
2013-06-16 05:53:00,51.3,32.2,29.91,SSW,203,6.0,8.1,48,0.00,,,0.00,WUHU216HW,2013-06-16 11:53:00,
2013-06-16 05:55:00,51.3,33.4,29.90,SSE,158,2.9,8.1,50,0.00,,,0.00,WUHU216HW,2013-06-16 11:55:00,
2013-06-16 05:56:00,51.3,33.4,29.91,SSE,158,4.0,8.1,50,0.00,,,0.00,WUHU216HW,2013-06-16 11:56:00,
2013-06-16 05:57:00,51.3,33.4,29.91,SE,135,3.4,8.1,50,0.00,,,0.00,WUHU216HW,2013-06-16 11:57:00,
2013-06-16 05:58:00,51.3,34.3,29.91,ESE,113,3.8,6.0,52,0.00,,,0.00,WUHU216HW,2013-06-16 11:58:00,
2013-06-16 06:01:00,51.1,34.1,29.91,SSE,158,1.8,6.0,52,0.00,,,0.00,WUHU216HW,2013-06-16 12:01:00,
2013-06-16 06:02:00,51.3,35.2,29.91,ESE,113,1.6,6.0,54,0.00,,,0.00,WUHU216HW,2013-06-16 12:02:00,
2013-06-16 06:03:00,51.1,35.0,29.91,ESE,113,2.7,6.0,54,0.00,,,0.00,WUHU216HW,2013-06-16 12:03:00,
2013-06-16 06:06:00,51.1,35.0,29.90,SE,135,1.1,4.9,54,0.00,,,0.00,WUHU216HW,2013-06-16 12:06:00,
2013-06-16 06:07:00,51.1,35.0,29.90,SSW,203,1.1,4.9,54,0.00,,,0.00,WUHU216HW,2013-06-16 12:07:00,
2013-06-16 06:08:00,51.1,35.5,29.91,SW,225,1.1,3.8,55,0.00,,,0.00,WUHU216HW,2013-06-16 12:08:00,
2013-06-16 06:11:00,51.1,35.5,29.91,SW,225,1.8,3.4,55,0.00,,,0.00,WUHU216HW,2013-06-16 12:11:00,
2013-06-16 06:12:00,50.9,35.7,29.91,West,270,2.5,3.4,56,0.00,,,0.00,WUHU216HW,2013-06-16 12:12:00,
2013-06-16 06:13:00,50.9,35.7,29.91,West,270,2.7,3.1,56,0.00,,,0.00,WUHU216HW,2013-06-16 12:13:00,
2013-06-16 06:14:00,50.8,35.6,29.90,WSW,248,1.3,3.1,56,0.00,,,0.00,WUHU216HW,2013-06-16 12:14:00,
2013-06-16 06:16:00,50.8,35.6,29.91,West,270,2.9,3.1,56,0.00,,,0.00,WUHU216HW,2013-06-16 12:16:00,
2013-06-16 06:17:00,50.8,36.0,29.91,West,270,2.0,3.1,57,0.00,,,0.00,WUHU216HW,2013-06-16 12:17:00,
2013-06-16 06:18:00,50.8,36.0,29.91,West,270,1.6,3.1,57,0.00,,,0.00,WUHU216HW,2013-06-16 12:18:00,
2013-06-16 06:19:00,50.8,36.0,29.91,West,270,2.9,3.1,57,0.00,,,0.00,WUHU216HW,2013-06-16 12:19:00,
2013-06-16 06:21:00,50.6,36.3,29.91,SE,135,1.8,3.1,58,0.00,,,0.00,WUHU216HW,2013-06-16 12:21:00,
2013-06-16 06:22:00,50.6,35.8,29.91,SSW,203,1.3,3.1,57,0.00,,,0.00,WUHU216HW,2013-06-16 12:22:00,
2013-06-16 06:23:00,50.4,35.7,29.91,South,180,1.8,3.1,57,0.00,,,0.00,WUHU216HW,2013-06-16 12:23:00,
2013-06-16 06:24:00,50.6,36.3,29.91,SSW,203,1.1,3.1,58,0.00,,,0.00,WUHU216HW,2013-06-16 12:24:00,
2013-06-16 06:26:00,50.6,36.3,29.91,SE,135,1.1,3.1,58,0.00,,,0.00,WUHU216HW,2013-06-16 12:26:00,
2013-06-16 06:27:00,50.6,36.3,29.91,ESE,113,0.4,3.1,58,0.00,,,0.00,WUHU216HW,2013-06-16 12:27:00,
2013-06-16 06:28:00,50.6,36.3,29.91,ESE,113,0.7,3.1,58,0.00,,,0.00,WUHU216HW,2013-06-16 12:28:00,
2013-06-16 06:29:00,50.8,36.5,29.91,SSW,203,1.6,3.1,58,0.00,,,0.00,WUHU216HW,2013-06-16 12:29:00,
2013-06-16 06:31:00,50.8,36.5,29.91,SSE,158,0.7,2.0,58,0.00,,,0.00,WUHU216HW,2013-06-16 12:31:00,
2013-06-16 06:32:00,50.8,36.0,29.91,South,180,1.8,2.0,57,0.00,,,0.00,WUHU216HW,2013-06-16 12:32:00,
2013-06-16 06:33:00,50.8,36.5,29.91,SSE,158,1.6,2.0,58,0.00,,,0.00,WUHU216HW,2013-06-16 12:33:00,
2013-06-16 06:34:00,50.8,36.5,29.91,SE,135,2.5,2.5,58,0.00,,,0.00,WUHU216HW,2013-06-16 12:34:00,
2013-06-16 06:36:00,51.1,36.8,29.91,SSE,158,2.5,3.4,58,0.00,,,0.00,WUHU216HW,2013-06-16 12:36:00,
2013-06-16 06:38:00,51.1,36.8,29.91,SSE,158,1.8,3.4,58,0.00,,,0.00,WUHU216HW,2013-06-16 12:38:00,
2013-06-16 06:39:00,51.1,36.4,29.91,SSW,203,2.5,3.4,57,0.00,,,0.00,WUHU216HW,2013-06-16 12:39:00,
2013-06-16 06:41:00,51.3,36.6,29.91,SSE,158,1.8,3.4,57,0.00,,,0.00,WUHU216HW,2013-06-16 12:41:00,
2013-06-16 06:43:00,51.3,36.6,29.91,SSE,158,2.0,3.4,57,0.00,,,0.00,WUHU216HW,2013-06-16 12:43:00,
2013-06-16 06:44:00,51.5,36.6,29.91,SW,225,1.1,3.4,57,0.00,,,0.00,WUHU216HW,2013-06-16 12:44:00,
2013-06-16 06:45:00,51.5,37.1,29.91,SW,225,3.6,3.8,58,0.00,,,0.00,WUHU216HW,2013-06-16 12:45:00,
2013-06-16 06:47:00,51.5,36.6,29.91,SSW,203,3.4,3.8,57,0.00,,,0.00,WUHU216HW,2013-06-16 12:47:00,
2013-06-16 06:48:00,51.5,37.1,29.91,SSW,203,3.1,3.8,58,0.00,,,0.00,WUHU216HW,2013-06-16 12:48:00,
2013-06-16 06:49:00,51.5,37.1,29.91,SSW,203,2.0,3.8,58,0.00,,,0.00,WUHU216HW,2013-06-16 12:49:00,
2013-06-16 06:50:00,51.7,37.3,29.91,SSW,203,1.1,3.8,58,0.00,,,0.00,WUHU216HW,2013-06-16 12:50:00,
2013-06-16 06:52:00,51.8,37.4,29.91,South,180,2.7,3.8,58,0.00,,,0.00,WUHU216HW,2013-06-16 12:52:00,
2013-06-16 06:53:00,51.8,37.4,29.91,South,180,2.5,3.8,58,0.00,,,0.00,WUHU216HW,2013-06-16 12:53:00,
2013-06-16 06:54:00,51.8,37.4,29.91,South,180,1.8,3.8,58,0.00,,,0.00,WUHU216HW,2013-06-16 12:54:00,
2013-06-16 06:55:00,51.8,37.4,29.91,SW,225,2.5,3.6,58,0.00,,,0.00,WUHU216HW,2013-06-16 12:55:00,
2013-06-16 06:57:00,52.0,37.2,29.91,SW,225,2.0,3.4,57,0.00,,,0.00,WUHU216HW,2013-06-16 12:57:00,
2013-06-16 06:58:00,52.2,37.8,29.91,SW,225,1.8,3.1,58,0.00,,,0.00,WUHU216HW,2013-06-16 12:58:00,
2013-06-16 06:59:00,52.2,37.8,29.91,SW,225,1.8,2.7,58,0.00,,,0.00,WUHU216HW,2013-06-16 12:59:00,
2013-06-16 07:00:00,52.2,37.8,29.91,SW,225,3.1,3.1,58,0.00,,,0.00,WUHU216HW,2013-06-16 13:00:00,
2013-06-16 07:03:00,52.2,37.8,29.91,SW,225,2.9,3.4,58,0.00,,,0.00,WUHU216HW,2013-06-16 13:03:00,
2013-06-16 07:04:00,52.2,37.8,29.91,SW,225,2.9,3.4,58,0.00,,,0.00,WUHU216HW,2013-06-16 13:04:00,
2013-06-16 07:05:00,52.4,38.0,29.91,SW,225,2.5,3.4,58,0.00,,,0.00,WUHU216HW,2013-06-16 13:05:00,
2013-06-16 07:08:00,52.6,38.2,29.91,SW,225,0.7,3.4,58,0.00,,,0.00,WUHU216HW,2013-06-16 13:08:00,
2013-06-16 07:09:00,52.6,37.7,29.91,WSW,248,1.6,3.4,57,0.00,,,0.00,WUHU216HW,2013-06-16 13:09:00,
2013-06-16 07:11:00,52.9,38.1,29.91,SW,225,2.2,3.4,57,0.00,,,0.00,WUHU216HW,2013-06-16 13:11:00,
2013-06-16 07:13:00,52.9,38.1,29.92,SW,225,0.9,3.4,57,0.00,,,0.00,WUHU216HW,2013-06-16 13:13:00,
2013-06-16 07:14:00,53.1,37.7,29.92,WNW,293,0.7,2.7,56,0.00,,,0.00,WUHU216HW,2013-06-16 13:14:00,
2013-06-16 07:16:00,53.3,35.7,29.92,North,0,1.6,2.7,51,0.00,,,0.00,WUHU216HW,2013-06-16 13:16:00,
2013-06-16 07:18:00,53.6,34.4,29.92,North,0,1.1,2.7,48,0.00,,,0.00,WUHU216HW,2013-06-16 13:18:00,
2013-06-16 07:19:00,53.6,35.5,29.92,North,0,1.1,2.7,50,0.00,,,0.00,WUHU216HW,2013-06-16 13:19:00,
2013-06-16 07:20:00,53.8,35.7,29.92,NNE,23,1.8,2.7,50,0.00,,,0.00,WUHU216HW,2013-06-16 13:20:00,
2013-06-16 07:21:00,54.0,35.8,29.92,North,0,3.4,3.4,50,0.00,,,0.00,WUHU216HW,2013-06-16 13:21:00,
2013-06-16 07:24:00,54.4,37.1,29.92,ENE,68,2.7,4.7,52,0.00,,,0.00,WUHU216HW,2013-06-16 13:24:00,
2013-06-16 07:25:00,54.2,37.4,29.92,ENE,68,2.5,4.7,53,0.00,,,0.00,WUHU216HW,2013-06-16 13:25:00,
2013-06-16 07:27:00,54.4,38.9,29.92,NNE,23,2.7,4.7,56,0.00,,,0.00,WUHU216HW,2013-06-16 13:27:00,
2013-06-16 07:29:00,54.4,38.4,29.92,NE,45,2.2,4.7,55,0.00,,,0.00,WUHU216HW,2013-06-16 13:29:00,
2013-06-16 07:30:00,54.2,37.8,29.92,NNE,23,2.9,4.7,54,0.00,,,0.00,WUHU216HW,2013-06-16 13:30:00,
2013-06-16 07:32:00,54.2,37.8,29.92,NE,45,1.8,4.7,54,0.00,,,0.00,WUHU216HW,2013-06-16 13:32:00,
2013-06-16 07:34:00,54.4,37.5,29.92,NE,45,2.5,3.6,53,0.00,,,0.00,WUHU216HW,2013-06-16 13:34:00,
2013-06-16 07:35:00,54.2,36.9,29.92,ENE,68,1.8,3.6,52,0.00,,,0.00,WUHU216HW,2013-06-16 13:35:00,
2013-06-16 07:37:00,54.4,37.1,29.92,ENE,68,2.0,3.6,52,0.00,,,0.00,WUHU216HW,2013-06-16 13:37:00,
2013-06-16 07:39:00,54.4,37.1,29.92,ENE,68,2.9,2.9,52,0.00,,,0.00,WUHU216HW,2013-06-16 13:39:00,
2013-06-16 07:40:00,54.5,37.2,29.92,East,90,1.8,2.9,52,0.00,,,0.00,WUHU216HW,2013-06-16 13:40:00,
2013-06-16 07:42:00,54.5,37.2,29.92,ENE,68,1.8,2.9,52,0.00,,,0.00,WUHU216HW,2013-06-16 13:42:00,
2013-06-16 07:44:00,54.7,37.4,29.92,ENE,68,1.8,3.4,52,0.00,,,0.00,WUHU216HW,2013-06-16 13:44:00,
2013-06-16 07:45:00,54.7,37.4,29.92,East,90,1.3,3.4,52,0.00,,,0.00,WUHU216HW,2013-06-16 13:45:00,
2013-06-16 07:47:00,55.1,38.2,29.92,ENE,68,2.0,3.4,53,0.00,,,0.00,WUHU216HW,2013-06-16 13:47:00,
2013-06-16 07:49:00,55.4,37.5,29.92,North,0,3.1,3.4,51,0.00,,,0.00,WUHU216HW,2013-06-16 13:49:00,
2013-06-16 07:50:00,55.4,37.5,29.92,North,0,3.1,3.4,51,0.00,,,0.00,WUHU216HW,2013-06-16 13:50:00,
2013-06-16 07:51:00,55.4,38.0,29.92,NNE,23,2.9,4.0,52,0.00,,,0.00,WUHU216HW,2013-06-16 13:51:00,
2013-06-16 07:53:00,55.4,37.5,29.92,NNW,338,0.9,4.0,51,0.00,,,0.00,WUHU216HW,2013-06-16 13:53:00,
2013-06-16 07:55:00,55.4,38.5,29.92,NNW,338,2.5,4.0,53,0.00,,,0.00,WUHU216HW,2013-06-16 13:55:00,
2013-06-16 07:57:00,55.4,38.0,29.92,North,0,1.8,4.0,52,0.00,,,0.00,WUHU216HW,2013-06-16 13:57:00,
2013-06-16 07:58:00,55.4,39.0,29.92,NE,45,1.6,4.0,54,0.00,,,0.00,WUHU216HW,2013-06-16 13:58:00,
2013-06-16 08:00:00,55.6,38.7,29.92,NNE,23,3.6,4.3,53,0.00,,,0.00,WUHU216HW,2013-06-16 14:00:00,
2013-06-16 08:02:00,55.4,39.0,29.92,North,0,3.4,4.3,54,0.00,,,0.00,WUHU216HW,2013-06-16 14:02:00,
2013-06-16 08:03:00,55.4,39.0,29.92,North,0,1.8,4.3,54,0.00,,,0.00,WUHU216HW,2013-06-16 14:03:00,
2013-06-16 08:05:00,55.4,38.5,29.92,North,0,0.9,4.3,53,0.00,,,0.00,WUHU216HW,2013-06-16 14:05:00,
2013-06-16 08:06:00,55.3,38.4,29.92,NNW,338,4.0,4.3,53,0.00,,,0.00,WUHU216HW,2013-06-16 14:06:00,
2013-06-16 08:07:00,55.4,37.5,29.92,NNW,338,2.7,6.0,51,0.00,,,0.00,WUHU216HW,2013-06-16 14:07:00,
2013-06-16 08:08:00,55.6,37.3,29.92,NNW,338,6.9,6.9,50,0.00,,,0.00,WUHU216HW,2013-06-16 14:08:00,
2013-06-16 08:10:00,55.8,37.4,29.92,North,0,4.3,6.9,50,0.00,,,0.00,WUHU216HW,2013-06-16 14:10:00,
2013-06-16 08:11:00,55.8,36.9,29.92,NW,315,4.3,6.9,49,0.00,,,0.00,WUHU216HW,2013-06-16 14:11:00,
2013-06-16 08:12:00,55.8,37.4,29.92,North,0,4.0,6.9,50,0.00,,,0.00,WUHU216HW,2013-06-16 14:12:00,
2013-06-16 08:13:00,55.8,37.4,29.92,NNW,338,5.4,6.9,50,0.00,,,0.00,WUHU216HW,2013-06-16 14:13:00,
2013-06-16 08:15:00,55.8,37.4,29.92,NW,315,5.4,6.9,50,0.00,,,0.00,WUHU216HW,2013-06-16 14:15:00,
2013-06-16 08:16:00,56.0,37.1,29.92,NW,315,6.9,7.4,49,0.00,,,0.00,WUHU216HW,2013-06-16 14:16:00,
2013-06-16 08:17:00,56.0,37.1,29.92,NNW,338,7.4,8.5,49,0.00,,,0.00,WUHU216HW,2013-06-16 14:17:00,
2013-06-16 08:18:00,56.0,37.1,29.92,NNW,338,7.4,8.5,49,0.00,,,0.00,WUHU216HW,2013-06-16 14:18:00,
2013-06-16 08:20:00,56.0,37.1,29.92,NNW,338,7.4,8.5,49,0.00,,,0.00,WUHU216HW,2013-06-16 14:20:00,
2013-06-16 08:21:00,56.0,37.1,29.92,NNW,338,6.7,8.5,49,0.00,,,0.00,WUHU216HW,2013-06-16 14:21:00,
2013-06-16 08:22:00,56.0,37.1,29.92,NW,315,6.0,8.5,49,0.00,,,0.00,WUHU216HW,2013-06-16 14:22:00,
2013-06-16 08:23:00,56.0,37.6,29.92,NW,315,7.2,8.5,50,0.00,,,0.00,WUHU216HW,2013-06-16 14:23:00,
2013-06-16 08:25:00,56.0,37.1,29.92,North,0,4.9,8.5,49,0.00,,,0.00,WUHU216HW,2013-06-16 14:25:00,
2013-06-16 08:26:00,56.0,37.1,29.92,North,0,4.9,8.5,49,0.00,,,0.00,WUHU216HW,2013-06-16 14:26:00,
2013-06-16 08:27:00,56.0,37.1,29.92,NNW,338,6.7,8.5,49,0.00,,,0.00,WUHU216HW,2013-06-16 14:27:00,
2013-06-16 08:28:00,56.0,37.1,29.92,NNW,338,6.5,8.1,49,0.00,,,0.00,WUHU216HW,2013-06-16 14:28:00,
2013-06-16 08:29:00,56.0,37.1,29.92,NNW,338,7.2,8.1,49,0.00,,,0.00,WUHU216HW,2013-06-16 14:29:00,
2013-06-16 08:30:00,56.0,37.1,29.92,NNW,338,4.0,8.1,49,0.00,,,0.00,WUHU216HW,2013-06-16 14:30:00,
2013-06-16 08:31:00,56.0,37.6,29.92,NNW,338,2.7,8.1,50,0.00,,,0.00,WUHU216HW,2013-06-16 14:31:00,
2013-06-16 08:32:00,56.0,37.6,29.92,North,0,5.1,8.1,50,0.00,,,0.00,WUHU216HW,2013-06-16 14:32:00,
2013-06-16 08:33:00,56.0,37.6,29.92,North,0,4.7,8.1,50,0.00,,,0.00,WUHU216HW,2013-06-16 14:33:00,
2013-06-16 08:34:00,56.2,37.8,29.92,North,0,4.7,8.1,50,0.00,,,0.00,WUHU216HW,2013-06-16 14:34:00,
2013-06-16 08:35:00,56.3,36.8,29.92,NNW,338,7.2,7.6,48,0.00,,,0.00,WUHU216HW,2013-06-16 14:35:00,
2013-06-16 08:36:00,56.3,36.8,29.92,North,0,6.5,7.6,48,0.00,,,0.00,WUHU216HW,2013-06-16 14:36:00,
2013-06-16 08:37:00,56.3,36.8,29.92,North,0,5.4,7.6,48,0.00,,,0.00,WUHU216HW,2013-06-16 14:37:00,
2013-06-16 08:38:00,56.3,37.5,29.92,NNW,338,7.6,7.8,49,0.00,,,0.00,WUHU216HW,2013-06-16 14:38:00,
2013-06-16 08:39:00,56.5,37.0,29.92,North,0,5.1,7.8,48,0.00,,,0.00,WUHU216HW,2013-06-16 14:39:00,
2013-06-16 08:40:00,56.5,37.6,29.92,North,0,5.8,7.8,49,0.00,,,0.00,WUHU216HW,2013-06-16 14:40:00,
2013-06-16 08:41:00,56.7,37.2,29.92,North,0,4.9,7.8,48,0.00,,,0.00,WUHU216HW,2013-06-16 14:41:00,
2013-06-16 08:42:00,56.5,37.0,29.92,NNW,338,6.5,7.8,48,0.00,,,0.00,WUHU216HW,2013-06-16 14:42:00,
2013-06-16 08:44:00,56.7,37.8,29.92,North,0,4.5,7.8,49,0.00,,,0.00,WUHU216HW,2013-06-16 14:44:00,
2013-06-16 08:46:00,56.9,37.4,29.92,NNW,338,8.1,8.9,48,0.00,,,0.00,WUHU216HW,2013-06-16 14:46:00,
2013-06-16 08:47:00,57.1,38.2,29.92,NNW,338,6.9,8.9,49,0.00,,,0.00,WUHU216HW,2013-06-16 14:47:00,
2013-06-16 08:49:00,57.1,38.7,29.92,NNW,338,7.6,8.9,50,0.00,,,0.00,WUHU216HW,2013-06-16 14:49:00,
2013-06-16 08:51:00,57.1,39.2,29.92,NNW,338,6.7,8.9,51,0.00,,,0.00,WUHU216HW,2013-06-16 14:51:00,
2013-06-16 08:52:00,57.1,39.2,29.93,NNW,338,4.0,8.9,51,0.00,,,0.00,WUHU216HW,2013-06-16 14:52:00,
2013-06-16 08:54:00,57.1,39.6,29.92,North,0,5.1,8.9,52,0.00,,,0.00,WUHU216HW,2013-06-16 14:54:00,
2013-06-16 08:56:00,56.9,40.0,29.93,NNW,338,7.6,7.6,53,0.00,,,0.00,WUHU216HW,2013-06-16 14:56:00,
2013-06-16 08:57:00,56.9,40.0,29.93,NNW,338,6.0,7.6,53,0.00,,,0.00,WUHU216HW,2013-06-16 14:57:00,
2013-06-16 08:59:00,57.1,40.6,29.93,NNW,338,7.2,7.6,54,0.00,,,0.00,WUHU216HW,2013-06-16 14:59:00,
2013-06-16 09:01:00,57.2,40.8,29.93,North,0,4.7,7.6,54,0.00,,,0.00,WUHU216HW,2013-06-16 15:01:00,
2013-06-16 09:02:00,57.1,40.2,29.92,NW,315,7.6,7.6,53,0.00,,,0.00,WUHU216HW,2013-06-16 15:02:00,
2013-06-16 09:04:00,57.2,40.8,29.92,NNW,338,6.5,7.6,54,0.00,,,0.00,WUHU216HW,2013-06-16 15:04:00,
2013-06-16 09:06:00,57.2,40.3,29.92,North,0,5.8,7.6,53,0.00,,,0.00,WUHU216HW,2013-06-16 15:06:00,
2013-06-16 09:07:00,57.2,40.3,29.93,NNW,338,6.0,7.6,53,0.00,,,0.00,WUHU216HW,2013-06-16 15:07:00,
2013-06-16 09:10:00,57.2,40.3,29.93,North,0,4.5,7.6,53,0.00,,,0.00,WUHU216HW,2013-06-16 15:10:00,
2013-06-16 09:11:00,57.2,40.3,29.93,North,0,7.2,8.5,53,0.00,,,0.00,WUHU216HW,2013-06-16 15:11:00,
2013-06-16 09:12:00,57.2,40.8,29.93,NNW,338,3.1,8.5,54,0.00,,,0.00,WUHU216HW,2013-06-16 15:12:00,
2013-06-16 09:13:00,57.2,40.8,29.93,NNW,338,3.1,8.5,54,0.00,,,0.00,WUHU216HW,2013-06-16 15:13:00,
2013-06-16 09:15:00,57.6,40.6,29.93,NNW,338,8.5,9.8,53,0.00,,,0.00,WUHU216HW,2013-06-16 15:15:00,
2013-06-16 09:16:00,58.0,40.5,29.93,North,0,6.7,9.8,52,0.00,,,0.00,WUHU216HW,2013-06-16 15:16:00,
2013-06-16 09:17:00,58.0,40.5,29.93,NNW,338,7.4,9.8,52,0.00,,,0.00,WUHU216HW,2013-06-16 15:17:00,
2013-06-16 09:18:00,58.0,40.5,29.93,North,0,6.3,9.8,52,0.00,,,0.00,WUHU216HW,2013-06-16 15:18:00,
2013-06-16 09:20:00,58.1,41.1,29.93,NNW,338,9.2,9.8,53,0.00,,,0.00,WUHU216HW,2013-06-16 15:20:00,
2013-06-16 09:22:00,58.3,40.8,29.93,NNW,338,9.2,9.8,52,0.00,,,0.00,WUHU216HW,2013-06-16 15:22:00,
2013-06-16 09:23:00,58.3,40.3,29.93,NNW,338,6.3,9.8,51,0.00,,,0.00,WUHU216HW,2013-06-16 15:23:00,
2013-06-16 09:25:00,58.7,41.1,29.93,NNW,338,10.3,11.0,52,0.00,,,0.00,WUHU216HW,2013-06-16 15:25:00,
2013-06-16 09:26:00,58.7,40.7,29.92,NW,315,9.8,11.0,51,0.00,,,0.00,WUHU216HW,2013-06-16 15:26:00,
2013-06-16 09:27:00,58.7,40.7,29.92,NNW,338,8.7,11.9,51,0.00,,,0.00,WUHU216HW,2013-06-16 15:27:00,
2013-06-16 09:28:00,58.7,40.7,29.92,North,0,9.8,11.9,51,0.00,,,0.00,WUHU216HW,2013-06-16 15:28:00,
2013-06-16 09:30:00,58.7,40.7,29.92,North,0,7.4,13.4,51,0.00,,,0.00,WUHU216HW,2013-06-16 15:30:00,
2013-06-16 09:31:00,58.9,40.8,29.92,NNW,338,8.7,13.4,51,0.00,,,0.00,WUHU216HW,2013-06-16 15:31:00,
2013-06-16 09:32:00,58.9,40.8,29.92,NNW,338,8.1,13.4,51,0.00,,,0.00,WUHU216HW,2013-06-16 15:32:00,
2013-06-16 09:33:00,58.9,40.8,29.92,NNW,338,8.7,13.4,51,0.00,,,0.00,WUHU216HW,2013-06-16 15:33:00,
2013-06-16 09:35:00,59.2,41.6,29.92,NNW,338,10.3,13.4,52,0.00,,,0.00,WUHU216HW,2013-06-16 15:35:00,
2013-06-16 09:36:00,59.4,40.9,29.92,North,0,8.5,13.4,50,0.00,,,0.00,WUHU216HW,2013-06-16 15:36:00,
2013-06-16 09:37:00,59.4,41.3,29.92,NNW,338,11.0,13.4,51,0.00,,,0.00,WUHU216HW,2013-06-16 15:37:00,
2013-06-16 09:38:00,59.4,40.9,29.92,NW,315,8.7,13.4,50,0.00,,,0.00,WUHU216HW,2013-06-16 15:38:00,
2013-06-16 09:39:00,59.4,41.3,29.92,North,0,6.5,13.4,51,0.00,,,0.00,WUHU216HW,2013-06-16 15:39:00,
2013-06-16 09:41:00,59.8,41.1,29.92,NNW,338,11.4,12.3,50,0.00,,,0.00,WUHU216HW,2013-06-16 15:41:00,
2013-06-16 09:42:00,59.9,40.8,29.92,North,0,8.7,12.3,49,0.00,,,0.00,WUHU216HW,2013-06-16 15:42:00,
2013-06-16 09:43:00,60.1,41.5,29.92,NNW,338,6.5,12.3,50,0.00,,,0.00,WUHU216HW,2013-06-16 15:43:00,
2013-06-16 09:44:00,60.1,40.3,29.92,NNW,338,7.6,11.4,48,0.00,,,0.00,WUHU216HW,2013-06-16 15:44:00,
2013-06-16 09:46:00,60.1,40.3,29.92,North,0,8.1,11.4,48,0.00,,,0.00,WUHU216HW,2013-06-16 15:46:00,
2013-06-16 09:47:00,60.1,40.9,29.92,NNW,338,11.0,11.4,49,0.00,,,0.00,WUHU216HW,2013-06-16 15:47:00,
2013-06-16 09:48:00,60.1,40.3,29.92,NNW,338,9.2,11.4,48,0.00,,,0.00,WUHU216HW,2013-06-16 15:48:00,
2013-06-16 09:49:00,60.3,40.5,29.92,NNW,338,7.2,11.4,48,0.00,,,0.00,WUHU216HW,2013-06-16 15:49:00,
2013-06-16 09:51:00,60.3,39.9,29.92,NW,315,9.6,13.2,47,0.00,,,0.00,WUHU216HW,2013-06-16 15:51:00,
2013-06-16 09:52:00,60.5,39.5,29.93,NNW,338,11.6,13.2,46,0.00,,,0.00,WUHU216HW,2013-06-16 15:52:00,
2013-06-16 09:53:00,60.5,40.1,29.93,NNW,338,9.2,13.2,47,0.00,,,0.00,WUHU216HW,2013-06-16 15:53:00,
2013-06-16 09:55:00,60.7,40.2,29.93,North,0,7.8,13.2,47,0.00,,,0.00,WUHU216HW,2013-06-16 15:55:00,
2013-06-16 09:56:00,60.8,39.8,29.93,NNW,338,11.4,13.2,46,0.00,,,0.00,WUHU216HW,2013-06-16 15:56:00,
2013-06-16 09:57:00,60.7,40.2,29.92,North,0,9.2,13.2,47,0.00,,,0.00,WUHU216HW,2013-06-16 15:57:00,
2013-06-16 09:58:00,60.8,39.8,29.92,NNW,338,11.0,13.2,46,0.00,,,0.00,WUHU216HW,2013-06-16 15:58:00,
2013-06-16 10:00:00,60.8,39.8,29.93,NNW,338,7.6,12.3,46,0.00,,,0.00,WUHU216HW,2013-06-16 16:00:00,
2013-06-16 10:01:00,60.8,39.2,29.93,NNW,338,9.2,12.3,45,0.00,,,0.00,WUHU216HW,2013-06-16 16:01:00,
2013-06-16 10:02:00,61.0,39.4,29.93,NNW,338,11.9,12.3,45,0.00,,,0.00,WUHU216HW,2013-06-16 16:02:00,
2013-06-16 10:03:00,61.2,39.6,29.92,NNW,338,9.4,12.3,45,0.00,,,0.00,WUHU216HW,2013-06-16 16:03:00,
2013-06-16 10:04:00,61.2,39.6,29.92,NNW,338,9.4,12.3,45,0.00,,,0.00,WUHU216HW,2013-06-16 16:04:00,
2013-06-16 10:05:00,61.4,38.6,29.92,North,0,8.7,12.3,43,0.00,,,0.00,WUHU216HW,2013-06-16 16:05:00,
2013-06-16 10:06:00,61.4,39.2,29.92,NNW,338,9.2,12.3,44,0.00,,,0.00,WUHU216HW,2013-06-16 16:06:00,
2013-06-16 10:07:00,61.4,38.6,29.92,North,0,10.5,12.1,43,0.00,,,0.00,WUHU216HW,2013-06-16 16:07:00,
2013-06-16 10:08:00,61.0,39.4,29.92,NNW,338,8.3,11.9,45,0.00,,,0.00,WUHU216HW,2013-06-16 16:08:00,
2013-06-16 10:09:00,61.2,39.6,29.92,NNW,338,7.4,11.9,45,0.00,,,0.00,WUHU216HW,2013-06-16 16:09:00,
2013-06-16 10:10:00,61.2,39.6,29.92,North,0,6.5,11.9,45,0.00,,,0.00,WUHU216HW,2013-06-16 16:10:00,
2013-06-16 10:11:00,61.2,40.1,29.92,North,0,7.6,11.9,46,0.00,,,0.00,WUHU216HW,2013-06-16 16:11:00,
2013-06-16 10:12:00,61.2,40.1,29.92,North,0,8.9,11.2,46,0.00,,,0.00,WUHU216HW,2013-06-16 16:12:00,
2013-06-16 10:14:00,61.2,39.6,29.92,NNW,338,9.2,11.2,45,0.00,,,0.00,WUHU216HW,2013-06-16 16:14:00,
2013-06-16 10:15:00,61.6,38.7,29.92,NNW,338,11.9,12.3,43,0.00,,,0.00,WUHU216HW,2013-06-16 16:15:00,
2013-06-16 10:16:00,61.7,39.5,29.92,NNW,338,10.3,12.3,44,0.00,,,0.00,WUHU216HW,2013-06-16 16:16:00,
2013-06-16 10:18:00,62.1,40.4,29.92,NNW,338,8.5,12.3,45,0.00,,,0.00,WUHU216HW,2013-06-16 16:18:00,
2013-06-16 10:19:00,62.3,38.8,29.92,North,0,8.5,12.3,42,0.00,,,0.00,WUHU216HW,2013-06-16 16:19:00,
2013-06-16 10:20:00,62.1,40.4,29.92,North,0,5.8,12.3,45,0.00,,,0.00,WUHU216HW,2013-06-16 16:20:00,
2013-06-16 10:21:00,62.1,39.8,29.92,NNW,338,10.1,12.3,44,0.00,,,0.00,WUHU216HW,2013-06-16 16:21:00,
2013-06-16 10:23:00,62.1,39.8,29.92,NNW,338,8.5,12.3,44,0.00,,,0.00,WUHU216HW,2013-06-16 16:23:00,
2013-06-16 10:24:00,62.3,41.1,29.92,NNW,338,6.7,12.3,46,0.00,,,0.00,WUHU216HW,2013-06-16 16:24:00,
2013-06-16 10:25:00,62.3,40.5,29.92,North,0,7.6,12.3,45,0.00,,,0.00,WUHU216HW,2013-06-16 16:25:00,
2013-06-16 10:27:00,62.3,41.1,29.92,North,0,7.6,10.5,46,0.00,,,0.00,WUHU216HW,2013-06-16 16:27:00,
2013-06-16 10:28:00,62.1,39.8,29.92,NNW,338,7.4,10.3,44,0.00,,,0.00,WUHU216HW,2013-06-16 16:28:00,
2013-06-16 10:29:00,62.1,39.8,29.92,NW,315,10.5,10.5,44,0.00,,,0.00,WUHU216HW,2013-06-16 16:29:00,
2013-06-16 10:30:00,62.3,41.1,29.92,NNW,338,7.2,12.5,46,0.00,,,0.00,WUHU216HW,2013-06-16 16:30:00,
2013-06-16 10:31:00,62.3,41.7,29.92,North,0,6.9,12.5,47,0.00,,,0.00,WUHU216HW,2013-06-16 16:31:00,
2013-06-16 10:32:00,62.6,39.2,29.92,North,0,8.5,12.5,42,0.00,,,0.00,WUHU216HW,2013-06-16 16:32:00,
2013-06-16 10:34:00,62.6,39.7,29.92,North,0,6.0,12.5,43,0.00,,,0.00,WUHU216HW,2013-06-16 16:34:00,
2013-06-16 10:35:00,62.8,40.4,29.92,NW,315,8.5,12.5,44,0.00,,,0.00,WUHU216HW,2013-06-16 16:35:00,
2013-06-16 10:36:00,63.0,39.4,29.92,NNW,338,7.6,12.5,42,0.00,,,0.00,WUHU216HW,2013-06-16 16:36:00,
2013-06-16 10:37:00,62.8,39.3,29.92,NNW,338,9.6,12.5,42,0.00,,,0.00,WUHU216HW,2013-06-16 16:37:00,
2013-06-16 10:39:00,63.0,40.1,29.92,North,0,6.3,12.5,43,0.00,,,0.00,WUHU216HW,2013-06-16 16:39:00,
2013-06-16 10:40:00,63.0,40.1,29.92,North,0,8.1,12.1,43,0.00,,,0.00,WUHU216HW,2013-06-16 16:40:00,
2013-06-16 10:41:00,63.0,40.6,29.92,North,0,7.4,12.1,44,0.00,,,0.00,WUHU216HW,2013-06-16 16:41:00,
2013-06-16 10:42:00,63.0,40.1,29.92,NNW,338,6.5,12.1,43,0.00,,,0.00,WUHU216HW,2013-06-16 16:42:00,
2013-06-16 10:44:00,63.2,41.3,29.92,North,0,6.5,12.1,45,0.00,,,0.00,WUHU216HW,2013-06-16 16:44:00,
2013-06-16 10:45:00,63.7,40.7,29.92,NNW,338,9.6,12.1,43,0.00,,,0.00,WUHU216HW,2013-06-16 16:45:00,
2013-06-16 10:46:00,63.9,41.4,29.92,NNW,338,6.0,12.1,44,0.00,,,0.00,WUHU216HW,2013-06-16 16:46:00,
2013-06-16 10:47:00,64.4,42.0,29.92,North,0,5.8,10.5,44,0.00,,,0.00,WUHU216HW,2013-06-16 16:47:00,
2013-06-16 10:49:00,64.4,40.1,29.92,North,0,7.2,10.5,41,0.00,,,0.00,WUHU216HW,2013-06-16 16:49:00,
2013-06-16 10:50:00,64.3,40.6,29.92,North,0,5.4,9.6,42,0.00,,,0.00,WUHU216HW,2013-06-16 16:50:00,
2013-06-16 10:51:00,64.3,40.1,29.92,North,0,8.1,9.6,41,0.00,,,0.00,WUHU216HW,2013-06-16 16:51:00,
2013-06-16 10:53:00,63.9,38.4,29.92,North,0,6.9,9.6,39,0.00,,,0.00,WUHU216HW,2013-06-16 16:53:00,
2013-06-16 10:54:00,63.9,39.7,29.92,North,0,4.9,9.6,41,0.00,,,0.00,WUHU216HW,2013-06-16 16:54:00,
2013-06-16 10:55:00,63.9,39.2,29.92,NNW,338,9.8,9.8,40,0.00,,,0.00,WUHU216HW,2013-06-16 16:55:00,
2013-06-16 10:56:00,64.1,38.5,29.92,NNW,338,9.8,9.8,39,0.00,,,0.00,WUHU216HW,2013-06-16 16:56:00,
2013-06-16 10:58:00,64.3,40.1,29.92,North,0,6.5,9.8,41,0.00,,,0.00,WUHU216HW,2013-06-16 16:58:00,
2013-06-16 10:59:00,64.3,39.4,29.92,North,0,8.1,10.5,40,0.00,,,0.00,WUHU216HW,2013-06-16 16:59:00,
2013-06-16 11:00:00,64.4,39.6,29.92,North,0,6.0,10.5,40,0.00,,,0.00,WUHU216HW,2013-06-16 17:00:00,
2013-06-16 11:01:00,64.3,39.4,29.92,North,0,5.4,10.5,40,0.00,,,0.00,WUHU216HW,2013-06-16 17:01:00,
2013-06-16 11:02:00,64.3,39.4,29.92,North,0,5.4,10.5,40,0.00,,,0.00,WUHU216HW,2013-06-16 17:02:00,
2013-06-16 11:03:00,64.4,38.9,29.92,NNW,338,6.7,10.5,39,0.00,,,0.00,WUHU216HW,2013-06-16 17:03:00,
2013-06-16 11:04:00,64.4,38.9,29.92,NW,315,3.8,10.5,39,0.00,,,0.00,WUHU216HW,2013-06-16 17:04:00,
2013-06-16 11:06:00,64.6,39.1,29.92,NNW,338,8.7,10.5,39,0.00,,,0.00,WUHU216HW,2013-06-16 17:06:00,
2013-06-16 11:07:00,65.0,40.1,29.92,NW,315,8.7,10.5,40,0.00,,,0.00,WUHU216HW,2013-06-16 17:07:00,
2013-06-16 11:09:00,65.3,40.4,29.92,NNW,338,6.9,10.1,40,0.00,,,0.00,WUHU216HW,2013-06-16 17:09:00,
2013-06-16 11:11:00,65.3,39.7,29.92,North,0,4.7,10.1,39,0.00,,,0.00,WUHU216HW,2013-06-16 17:11:00,
2013-06-16 11:12:00,65.3,39.7,29.92,North,0,7.4,10.1,39,0.00,,,0.00,WUHU216HW,2013-06-16 17:12:00,
2013-06-16 11:14:00,65.2,39.5,29.92,North,0,6.3,10.1,39,0.00,,,0.00,WUHU216HW,2013-06-16 17:14:00,
2013-06-16 11:16:00,65.2,39.5,29.92,NNW,338,8.3,9.8,39,0.00,,,0.00,WUHU216HW,2013-06-16 17:16:00,
2013-06-16 11:17:00,65.2,38.1,29.92,NNW,338,8.3,9.8,37,0.00,,,0.00,WUHU216HW,2013-06-16 17:17:00,
2013-06-16 11:19:00,65.2,38.8,29.92,North,0,6.3,9.8,38,0.00,,,0.00,WUHU216HW,2013-06-16 17:19:00,
2013-06-16 11:21:00,65.2,40.2,29.92,NW,315,8.5,9.4,40,0.00,,,0.00,WUHU216HW,2013-06-16 17:21:00,
2013-06-16 11:22:00,65.3,39.7,29.92,North,0,11.2,11.2,39,0.00,,,0.00,WUHU216HW,2013-06-16 17:22:00,
2013-06-16 11:24:00,65.5,39.9,29.92,North,0,6.7,12.8,39,0.00,,,0.00,WUHU216HW,2013-06-16 17:24:00,
2013-06-16 11:25:00,65.5,39.9,29.92,North,0,6.7,12.8,39,0.00,,,0.00,WUHU216HW,2013-06-16 17:25:00,
2013-06-16 11:26:00,65.5,39.9,29.92,North,0,6.7,12.8,39,0.00,,,0.00,WUHU216HW,2013-06-16 17:26:00,
2013-06-16 11:27:00,65.5,39.9,29.92,North,0,6.7,12.8,39,0.00,,,0.00,WUHU216HW,2013-06-16 17:27:00,
2013-06-16 11:30:00,65.7,40.1,29.92,North,0,6.5,12.8,39,0.00,,,0.00,WUHU216HW,2013-06-16 17:30:00,
2013-06-16 11:31:00,65.9,38.7,29.92,North,0,9.8,12.8,37,0.00,,,0.00,WUHU216HW,2013-06-16 17:31:00,
2013-06-16 11:32:00,65.9,38.7,29.92,WNW,293,6.3,12.8,37,0.00,,,0.00,WUHU216HW,2013-06-16 17:32:00,
2013-06-16 11:33:00,66.1,39.6,29.92,NW,315,9.2,12.8,38,0.00,,,0.00,WUHU216HW,2013-06-16 17:33:00,
2013-06-16 11:35:00,66.4,39.3,29.92,NW,315,10.1,11.4,37,0.00,,,0.00,WUHU216HW,2013-06-16 17:35:00,
2013-06-16 11:36:00,66.6,40.2,29.92,North,0,6.0,11.4,38,0.00,,,0.00,WUHU216HW,2013-06-16 17:36:00,
2013-06-16 11:37:00,66.6,40.2,29.92,North,0,5.4,11.4,38,0.00,,,0.00,WUHU216HW,2013-06-16 17:37:00,
2013-06-16 11:38:00,66.6,39.3,29.92,NNW,338,3.6,11.4,37,0.00,,,0.00,WUHU216HW,2013-06-16 17:38:00,
2013-06-16 11:40:00,66.8,39.5,29.92,NNW,338,6.7,11.4,37,0.00,,,0.00,WUHU216HW,2013-06-16 17:40:00,
2013-06-16 11:41:00,67.0,39.0,29.92,WNW,293,5.4,11.4,36,0.00,,,0.00,WUHU216HW,2013-06-16 17:41:00,
2013-06-16 11:42:00,67.1,40.6,29.92,NW,315,5.8,11.4,38,0.00,,,0.00,WUHU216HW,2013-06-16 17:42:00,
2013-06-16 11:43:00,67.5,41.6,29.92,NNW,338,6.7,10.1,39,0.00,,,0.00,WUHU216HW,2013-06-16 17:43:00,
2013-06-16 11:45:00,67.7,41.0,29.92,North,0,4.9,10.1,38,0.00,,,0.00,WUHU216HW,2013-06-16 17:45:00,
2013-06-16 11:46:00,67.5,38.7,29.92,NNW,338,3.8,9.6,35,0.00,,,0.00,WUHU216HW,2013-06-16 17:46:00,
2013-06-16 11:47:00,67.3,40.8,29.92,NW,315,4.3,9.6,38,0.00,,,0.00,WUHU216HW,2013-06-16 17:47:00,
2013-06-16 11:49:00,67.3,40.0,29.92,NNW,338,6.3,9.6,37,0.00,,,0.00,WUHU216HW,2013-06-16 17:49:00,
2013-06-16 11:50:00,67.3,41.5,29.91,North,0,3.4,9.6,39,0.00,,,0.00,WUHU216HW,2013-06-16 17:50:00,
2013-06-16 11:51:00,67.5,41.6,29.92,North,0,2.9,9.6,39,0.00,,,0.00,WUHU216HW,2013-06-16 17:51:00,
2013-06-16 11:52:00,67.5,41.6,29.92,North,0,4.7,8.5,39,0.00,,,0.00,WUHU216HW,2013-06-16 17:52:00,
2013-06-16 11:54:00,67.5,40.1,29.91,NNW,338,4.0,8.1,37,0.00,,,0.00,WUHU216HW,2013-06-16 17:54:00,
2013-06-16 11:55:00,67.5,40.9,29.91,NW,315,4.0,8.1,38,0.00,,,0.00,WUHU216HW,2013-06-16 17:55:00,
2013-06-16 11:56:00,67.7,41.0,29.92,North,0,2.9,8.1,38,0.00,,,0.00,WUHU216HW,2013-06-16 17:56:00,
2013-06-16 11:57:00,67.7,40.3,29.92,NNE,23,7.4,8.9,37,0.00,,,0.00,WUHU216HW,2013-06-16 17:57:00,
2013-06-16 11:58:00,67.7,40.3,29.92,NNE,23,7.4,8.9,37,0.00,,,0.00,WUHU216HW,2013-06-16 17:58:00,
2013-06-16 11:59:00,67.7,40.3,29.92,North,0,3.4,8.9,37,0.00,,,0.00,WUHU216HW,2013-06-16 17:59:00,
2013-06-16 12:00:00,67.7,41.0,29.92,NNW,338,5.4,8.9,38,0.00,,,0.00,WUHU216HW,2013-06-16 18:00:00,
2013-06-16 12:01:00,67.5,40.9,29.92,North,0,4.0,8.9,38,0.00,,,0.00,WUHU216HW,2013-06-16 18:01:00,
2013-06-16 12:02:00,67.5,40.1,29.92,NW,315,3.8,8.9,37,0.00,,,0.00,WUHU216HW,2013-06-16 18:02:00,
2013-06-16 12:03:00,67.5,40.1,29.92,NW,315,3.8,8.9,37,0.00,,,0.00,WUHU216HW,2013-06-16 18:03:00,
2013-06-16 12:05:00,67.9,40.5,29.92,NNW,338,4.3,8.9,37,0.00,,,0.00,WUHU216HW,2013-06-16 18:05:00,
2013-06-16 12:06:00,68.2,39.3,29.92,NW,315,5.4,7.4,35,0.00,,,0.00,WUHU216HW,2013-06-16 18:06:00,
2013-06-16 12:07:00,68.4,39.5,29.92,NW,315,6.5,7.4,35,0.00,,,0.00,WUHU216HW,2013-06-16 18:07:00,
2013-06-16 12:08:00,68.6,39.6,29.92,NNW,338,4.3,6.5,35,0.00,,,0.00,WUHU216HW,2013-06-16 18:08:00,
2013-06-16 12:10:00,68.6,39.6,29.92,NNW,338,4.3,6.5,35,0.00,,,0.00,WUHU216HW,2013-06-16 18:10:00,
2013-06-16 12:11:00,68.6,39.6,29.92,NNW,338,4.3,6.5,35,0.00,,,0.00,WUHU216HW,2013-06-16 18:11:00,
2013-06-16 12:13:00,68.9,39.3,29.92,NE,45,3.4,6.5,34,0.00,,,0.00,WUHU216HW,2013-06-16 18:13:00,
2013-06-16 12:15:00,68.9,39.3,29.92,NNW,338,5.4,6.5,34,0.00,,,0.00,WUHU216HW,2013-06-16 18:15:00,
2013-06-16 12:16:00,68.9,38.5,29.92,North,0,4.7,6.5,33,0.00,,,0.00,WUHU216HW,2013-06-16 18:16:00,
2013-06-16 12:17:00,68.9,38.5,29.92,North,0,2.2,6.5,33,0.00,,,0.00,WUHU216HW,2013-06-16 18:17:00,
2013-06-16 12:18:00,68.9,37.0,29.92,North,0,3.8,6.3,31,0.00,,,0.00,WUHU216HW,2013-06-16 18:18:00,
2013-06-16 12:20:00,69.1,36.5,29.92,North,0,2.7,6.3,30,0.00,,,0.00,WUHU216HW,2013-06-16 18:20:00,
2013-06-16 12:21:00,69.3,38.1,29.92,North,0,1.3,6.3,32,0.00,,,0.00,WUHU216HW,2013-06-16 18:21:00,
2013-06-16 12:22:00,69.3,38.1,29.92,North,0,1.3,6.3,32,0.00,,,0.00,WUHU216HW,2013-06-16 18:22:00,
2013-06-16 12:23:00,69.3,38.1,29.92,North,0,1.3,6.3,32,0.00,,,0.00,WUHU216HW,2013-06-16 18:23:00,
2013-06-16 12:24:00,69.3,38.1,29.92,North,0,1.3,6.3,32,0.00,,,0.00,WUHU216HW,2013-06-16 18:24:00,
2013-06-16 12:25:00,69.7,39.2,29.92,West,270,0.9,6.3,33,0.00,,,0.00,WUHU216HW,2013-06-16 18:25:00,
2013-06-16 12:26:00,69.7,39.2,29.92,NW,315,5.6,6.3,33,0.00,,,0.00,WUHU216HW,2013-06-16 18:26:00,
2013-06-16 12:27:00,69.7,38.4,29.92,North,0,4.7,6.3,32,0.00,,,0.00,WUHU216HW,2013-06-16 18:27:00,
2013-06-16 12:28:00,69.8,38.5,29.92,North,0,4.0,6.3,32,0.00,,,0.00,WUHU216HW,2013-06-16 18:28:00,
2013-06-16 12:29:00,69.8,37.8,29.91,NNW,338,2.5,6.3,31,0.00,,,0.00,WUHU216HW,2013-06-16 18:29:00,
2013-06-16 12:30:00,69.8,38.5,29.91,West,270,0.4,6.3,32,0.00,,,0.00,WUHU216HW,2013-06-16 18:30:00,
2013-06-16 12:31:00,69.8,39.3,29.91,NNW,338,4.0,6.3,33,0.00,,,0.00,WUHU216HW,2013-06-16 18:31:00,
2013-06-16 12:33:00,70.0,40.2,29.91,North,0,5.1,7.6,34,0.00,,,0.00,WUHU216HW,2013-06-16 18:33:00,
2013-06-16 12:34:00,70.2,39.6,29.91,NNE,23,4.0,8.1,33,0.00,,,0.00,WUHU216HW,2013-06-16 18:34:00,
2013-06-16 12:35:00,70.0,38.0,29.91,NNW,338,2.2,8.1,31,0.00,,,0.00,WUHU216HW,2013-06-16 18:35:00,
2013-06-16 12:37:00,70.0,38.0,29.91,NNW,338,2.2,8.1,31,0.00,,,0.00,WUHU216HW,2013-06-16 18:37:00,
2013-06-16 12:38:00,70.0,38.0,29.91,NNW,338,2.2,8.1,31,0.00,,,0.00,WUHU216HW,2013-06-16 18:38:00,
2013-06-16 12:39:00,70.2,40.3,29.91,West,270,3.8,8.1,34,0.00,,,0.00,WUHU216HW,2013-06-16 18:39:00,
2013-06-16 12:40:00,70.4,39.8,29.91,NNW,338,4.5,8.1,33,0.00,,,0.00,WUHU216HW,2013-06-16 18:40:00,
2013-06-16 12:42:00,70.6,40.0,29.91,NNW,338,1.1,8.1,33,0.00,,,0.00,WUHU216HW,2013-06-16 18:42:00,
2013-06-16 12:43:00,70.9,39.5,29.91,NNW,338,3.8,8.1,32,0.00,,,0.00,WUHU216HW,2013-06-16 18:43:00,
2013-06-16 12:44:00,70.9,39.5,29.91,NNW,338,3.8,6.7,32,0.00,,,0.00,WUHU216HW,2013-06-16 18:44:00,
2013-06-16 12:45:00,70.9,39.5,29.91,NNW,338,3.8,6.7,32,0.00,,,0.00,WUHU216HW,2013-06-16 18:45:00,
2013-06-16 12:47:00,70.9,38.8,29.91,North,0,3.4,6.7,31,0.00,,,0.00,WUHU216HW,2013-06-16 18:47:00,
2013-06-16 12:48:00,70.9,38.8,29.91,North,0,3.4,6.7,31,0.00,,,0.00,WUHU216HW,2013-06-16 18:48:00,
2013-06-16 12:49:00,70.7,38.6,29.91,NW,315,3.8,6.7,31,0.00,,,0.00,WUHU216HW,2013-06-16 18:49:00,
2013-06-16 12:50:00,70.7,38.6,29.91,North,0,4.0,6.7,31,0.00,,,0.00,WUHU216HW,2013-06-16 18:50:00,
2013-06-16 12:52:00,70.6,37.7,29.91,NNE,23,4.7,7.8,30,0.00,,,0.00,WUHU216HW,2013-06-16 18:52:00,
2013-06-16 12:53:00,70.6,38.4,29.91,North,0,2.7,7.8,31,0.00,,,0.00,WUHU216HW,2013-06-16 18:53:00,
2013-06-16 12:54:00,70.6,38.4,29.91,North,0,4.9,7.8,31,0.00,,,0.00,WUHU216HW,2013-06-16 18:54:00,
2013-06-16 12:55:00,70.6,39.3,29.91,NNE,23,5.4,7.8,32,0.00,,,0.00,WUHU216HW,2013-06-16 18:55:00,
2013-06-16 12:56:00,70.7,38.6,29.91,NNE,23,4.0,7.8,31,0.00,,,0.00,WUHU216HW,2013-06-16 18:56:00,
2013-06-16 12:57:00,70.9,39.5,29.91,North,0,1.6,7.8,32,0.00,,,0.00,WUHU216HW,2013-06-16 18:57:00,
2013-06-16 12:58:00,70.9,39.5,29.90,North,0,1.6,7.8,32,0.00,,,0.00,WUHU216HW,2013-06-16 18:58:00,
2013-06-16 12:59:00,70.9,39.5,29.91,North,0,1.6,7.8,32,0.00,,,0.00,WUHU216HW,2013-06-16 18:59:00,
2013-06-16 13:00:00,70.9,39.5,29.91,North,0,1.6,7.8,32,0.00,,,0.00,WUHU216HW,2013-06-16 19:00:00,
2013-06-16 13:01:00,70.9,39.5,29.91,North,0,1.6,7.8,32,0.00,,,0.00,WUHU216HW,2013-06-16 19:01:00,
2013-06-16 13:02:00,71.3,39.2,29.91,NNW,338,2.5,5.4,31,0.00,,,0.00,WUHU216HW,2013-06-16 19:02:00,
2013-06-16 13:03:00,71.6,39.4,29.91,NW,315,3.8,5.4,31,0.00,,,0.00,WUHU216HW,2013-06-16 19:03:00,
2013-06-16 13:04:00,71.6,39.4,29.91,WSW,248,1.3,5.4,31,0.00,,,0.00,WUHU216HW,2013-06-16 19:04:00,
2013-06-16 13:05:00,71.6,39.4,29.91,SSW,203,1.6,5.4,31,0.00,,,0.00,WUHU216HW,2013-06-16 19:05:00,
2013-06-16 13:06:00,72.0,38.0,29.91,North,0,5.4,5.4,29,0.00,,,0.00,WUHU216HW,2013-06-16 19:06:00,
2013-06-16 13:08:00,72.0,40.5,29.91,North,0,5.6,6.0,32,0.00,,,0.00,WUHU216HW,2013-06-16 19:08:00,
2013-06-16 13:09:00,72.4,40.1,29.91,NNE,23,3.4,6.0,31,0.00,,,0.00,WUHU216HW,2013-06-16 19:09:00,
2013-06-16 13:10:00,72.4,39.2,29.90,North,0,5.4,6.0,30,0.00,,,0.00,WUHU216HW,2013-06-16 19:10:00,
2013-06-16 13:11:00,72.2,39.2,29.90,North,0,4.7,6.0,30,0.00,,,0.00,WUHU216HW,2013-06-16 19:11:00,
2013-06-16 13:13:00,72.0,39.0,29.91,NNW,338,2.5,6.0,30,0.00,,,0.00,WUHU216HW,2013-06-16 19:13:00,
2013-06-16 13:14:00,72.0,39.0,29.91,NNW,338,2.5,6.0,30,0.00,,,0.00,WUHU216HW,2013-06-16 19:14:00,
2013-06-16 13:15:00,72.0,39.0,29.90,NNW,338,2.5,6.0,30,0.00,,,0.00,WUHU216HW,2013-06-16 19:15:00,
2013-06-16 13:17:00,72.0,39.7,29.90,NW,315,4.0,5.6,31,0.00,,,0.00,WUHU216HW,2013-06-16 19:17:00,
2013-06-16 13:18:00,72.4,38.3,29.90,NNE,23,7.6,7.6,29,0.00,,,0.00,WUHU216HW,2013-06-16 19:18:00,
2013-06-16 13:19:00,72.4,39.2,29.91,NNE,23,4.0,7.6,30,0.00,,,0.00,WUHU216HW,2013-06-16 19:19:00,
2013-06-16 13:20:00,72.4,39.2,29.90,NNW,338,4.0,7.6,30,0.00,,,0.00,WUHU216HW,2013-06-16 19:20:00,
2013-06-16 13:22:00,72.4,37.3,29.90,NW,315,6.3,7.6,28,0.00,,,0.00,WUHU216HW,2013-06-16 19:22:00,
2013-06-16 13:23:00,72.7,39.6,29.90,WNW,293,6.5,7.6,30,0.00,,,0.00,WUHU216HW,2013-06-16 19:23:00,
2013-06-16 13:24:00,72.7,39.6,29.90,WNW,293,6.5,7.6,30,0.00,,,0.00,WUHU216HW,2013-06-16 19:24:00,
2013-06-16 13:25:00,72.9,38.7,29.90,North,0,2.5,7.6,29,0.00,,,0.00,WUHU216HW,2013-06-16 19:25:00,
2013-06-16 13:27:00,72.9,37.7,29.90,East,90,3.8,7.6,28,0.00,,,0.00,WUHU216HW,2013-06-16 19:27:00,
2013-06-16 13:29:00,72.9,38.7,29.90,NNE,23,1.8,6.5,29,0.00,,,0.00,WUHU216HW,2013-06-16 19:29:00,
2013-06-16 13:30:00,72.9,38.7,29.90,NNE,23,1.8,6.5,29,0.00,,,0.00,WUHU216HW,2013-06-16 19:30:00,
2013-06-16 13:32:00,73.1,39.9,29.90,NNW,338,6.3,6.5,30,0.00,,,0.00,WUHU216HW,2013-06-16 19:32:00,
2013-06-16 13:34:00,72.9,39.7,29.90,North,0,2.2,6.5,30,0.00,,,0.00,WUHU216HW,2013-06-16 19:34:00,
2013-06-16 13:35:00,72.9,39.7,29.90,NNE,23,4.7,6.3,30,0.00,,,0.00,WUHU216HW,2013-06-16 19:35:00,
2013-06-16 13:37:00,73.1,39.9,29.90,North,0,4.9,11.4,30,0.00,,,0.00,WUHU216HW,2013-06-16 19:37:00,
2013-06-16 13:39:00,72.9,40.5,29.90,North,0,5.8,11.4,31,0.00,,,0.00,WUHU216HW,2013-06-16 19:39:00,
2013-06-16 13:40:00,72.9,40.5,29.90,North,0,5.8,11.4,31,0.00,,,0.00,WUHU216HW,2013-06-16 19:40:00,
2013-06-16 13:41:00,72.9,40.5,29.90,North,0,5.8,11.4,31,0.00,,,0.00,WUHU216HW,2013-06-16 19:41:00,
2013-06-16 13:42:00,73.3,40.8,29.90,NNW,338,6.5,11.4,31,0.00,,,0.00,WUHU216HW,2013-06-16 19:42:00,
2013-06-16 13:44:00,73.3,40.0,29.90,North,0,1.8,11.4,30,0.00,,,0.00,WUHU216HW,2013-06-16 19:44:00,
2013-06-16 13:45:00,73.3,40.0,29.90,NE,45,5.4,11.4,30,0.00,,,0.00,WUHU216HW,2013-06-16 19:45:00,
2013-06-16 13:46:00,73.3,40.0,29.90,NE,45,5.4,11.4,30,0.00,,,0.00,WUHU216HW,2013-06-16 19:46:00,
2013-06-16 13:48:00,73.3,40.0,29.90,NE,45,5.4,8.3,30,0.00,,,0.00,WUHU216HW,2013-06-16 19:48:00,
2013-06-16 13:49:00,73.6,40.3,29.90,North,0,6.3,8.3,30,0.00,,,0.00,WUHU216HW,2013-06-16 19:49:00,
2013-06-16 13:51:00,73.3,40.8,29.90,North,0,3.4,8.3,31,0.00,,,0.00,WUHU216HW,2013-06-16 19:51:00,
2013-06-16 13:53:00,73.3,40.0,29.90,NNE,23,3.4,8.3,30,0.00,,,0.00,WUHU216HW,2013-06-16 19:53:00,
2013-06-16 13:54:00,73.3,40.0,29.90,NNE,23,3.4,8.3,30,0.00,,,0.00,WUHU216HW,2013-06-16 19:54:00,
2013-06-16 13:56:00,73.6,41.9,29.90,NNW,338,9.8,9.8,32,0.00,,,0.00,WUHU216HW,2013-06-16 19:56:00,
2013-06-16 13:58:00,74.0,41.4,29.90,NW,315,3.6,9.8,31,0.00,,,0.00,WUHU216HW,2013-06-16 19:58:00,
2013-06-16 13:59:00,74.3,41.7,29.90,West,270,6.9,9.8,31,0.00,,,0.00,WUHU216HW,2013-06-16 19:59:00,
2013-06-16 14:00:00,74.3,42.5,29.90,NW,315,8.5,9.8,32,0.00,,,0.00,WUHU216HW,2013-06-16 20:00:00,
2013-06-16 14:01:00,74.3,41.7,29.90,NW,315,8.5,9.8,31,0.00,,,0.00,WUHU216HW,2013-06-16 20:01:00,
2013-06-16 14:03:00,74.3,41.7,29.90,NW,315,8.5,9.8,31,0.00,,,0.00,WUHU216HW,2013-06-16 20:03:00,
2013-06-16 14:04:00,74.0,41.4,29.89,North,0,12.1,12.1,31,0.00,,,0.00,WUHU216HW,2013-06-16 20:04:00,
2013-06-16 14:05:00,74.0,41.4,29.89,North,0,12.1,12.1,31,0.00,,,0.00,WUHU216HW,2013-06-16 20:05:00,
2013-06-16 14:06:00,73.6,41.0,29.89,NNW,338,8.3,12.1,31,0.00,,,0.00,WUHU216HW,2013-06-16 20:06:00,
2013-06-16 14:07:00,73.6,41.0,29.89,NNW,338,8.3,12.1,31,0.00,,,0.00,WUHU216HW,2013-06-16 20:07:00,
2013-06-16 14:08:00,73.4,40.1,29.89,North,0,6.9,12.1,30,0.00,,,0.00,WUHU216HW,2013-06-16 20:08:00,
2013-06-16 14:10:00,73.3,40.8,29.89,NNW,338,2.9,12.1,31,0.00,,,0.00,WUHU216HW,2013-06-16 20:10:00,
2013-06-16 14:11:00,73.1,40.6,29.89,North,0,3.4,12.1,31,0.00,,,0.00,WUHU216HW,2013-06-16 20:11:00,
2013-06-16 14:12:00,73.1,41.4,29.89,NNW,338,7.6,12.1,32,0.00,,,0.00,WUHU216HW,2013-06-16 20:12:00,
2013-06-16 14:13:00,73.3,40.8,29.89,NW,315,11.2,12.5,31,0.00,,,0.00,WUHU216HW,2013-06-16 20:13:00,
2013-06-16 14:15:00,73.4,40.9,29.89,NW,315,7.6,12.5,31,0.00,,,0.00,WUHU216HW,2013-06-16 20:15:00,
2013-06-16 14:16:00,73.8,41.9,29.89,NNW,338,6.3,12.5,32,0.00,,,0.00,WUHU216HW,2013-06-16 20:16:00,
2013-06-16 14:17:00,73.8,41.9,29.89,NNW,338,6.3,12.5,32,0.00,,,0.00,WUHU216HW,2013-06-16 20:17:00,
2013-06-16 14:19:00,74.2,40.8,29.89,NNW,338,6.9,12.5,30,0.00,,,0.00,WUHU216HW,2013-06-16 20:19:00,
2013-06-16 14:20:00,74.0,40.6,29.89,NW,315,7.6,12.5,30,0.00,,,0.00,WUHU216HW,2013-06-16 20:20:00,
2013-06-16 14:21:00,74.0,41.4,29.89,NNW,338,6.3,12.5,31,0.00,,,0.00,WUHU216HW,2013-06-16 20:21:00,
2013-06-16 14:22:00,74.0,41.4,29.89,NNW,338,6.3,12.5,31,0.00,,,0.00,WUHU216HW,2013-06-16 20:22:00,
2013-06-16 14:24:00,74.0,41.4,29.89,NNW,338,6.3,9.8,31,0.00,,,0.00,WUHU216HW,2013-06-16 20:24:00,
2013-06-16 14:25:00,73.8,41.9,29.89,NW,315,8.9,9.8,32,0.00,,,0.00,WUHU216HW,2013-06-16 20:25:00,
2013-06-16 14:27:00,73.6,39.3,29.89,North,0,7.6,9.8,29,0.00,,,0.00,WUHU216HW,2013-06-16 20:27:00,
2013-06-16 14:28:00,73.3,40.0,29.89,NW,315,5.8,9.8,30,0.00,,,0.00,WUHU216HW,2013-06-16 20:28:00,
2013-06-16 14:29:00,73.3,40.0,29.89,NNW,338,4.0,9.8,30,0.00,,,0.00,WUHU216HW,2013-06-16 20:29:00,
2013-06-16 14:30:00,73.3,40.0,29.89,NW,315,9.6,9.8,30,0.00,,,0.00,WUHU216HW,2013-06-16 20:30:00,
2013-06-16 14:32:00,73.3,40.0,29.89,NNW,338,6.5,9.8,30,0.00,,,0.00,WUHU216HW,2013-06-16 20:32:00,
2013-06-16 14:33:00,73.4,40.9,29.89,NW,315,8.7,9.8,31,0.00,,,0.00,WUHU216HW,2013-06-16 20:33:00,
2013-06-16 14:35:00,73.4,40.9,29.89,NW,315,8.7,9.6,31,0.00,,,0.00,WUHU216HW,2013-06-16 20:35:00,
2013-06-16 14:37:00,74.2,39.8,29.89,NW,315,4.7,9.6,29,0.00,,,0.00,WUHU216HW,2013-06-16 20:37:00,
2013-06-16 14:38:00,74.5,40.1,29.89,NNW,338,4.3,9.6,29,0.00,,,0.00,WUHU216HW,2013-06-16 20:38:00,
2013-06-16 14:40:00,74.5,40.1,29.89,North,0,5.4,9.6,29,0.00,,,0.00,WUHU216HW,2013-06-16 20:40:00,
2013-06-16 14:41:00,74.3,37.9,29.89,North,0,7.6,8.7,27,0.00,,,0.00,WUHU216HW,2013-06-16 20:41:00,
2013-06-16 14:42:00,73.8,39.4,29.89,NNW,338,10.1,10.1,29,0.00,,,0.00,WUHU216HW,2013-06-16 20:42:00,
2013-06-16 14:43:00,73.6,39.3,29.89,NNW,338,8.1,10.1,29,0.00,,,0.00,WUHU216HW,2013-06-16 20:43:00,
2013-06-16 14:45:00,73.6,39.3,29.89,NNW,338,8.1,10.1,29,0.00,,,0.00,WUHU216HW,2013-06-16 20:45:00,
2013-06-16 14:46:00,74.2,41.6,29.89,NW,315,5.6,10.1,31,0.00,,,0.00,WUHU216HW,2013-06-16 20:46:00,
2013-06-16 14:47:00,74.5,39.1,29.89,NNW,338,6.0,10.1,28,0.00,,,0.00,WUHU216HW,2013-06-16 20:47:00,
2013-06-16 14:49:00,74.5,40.1,29.89,North,0,6.9,10.1,29,0.00,,,0.00,WUHU216HW,2013-06-16 20:49:00,
2013-06-16 14:50:00,74.5,40.1,29.89,NW,315,10.7,10.7,29,0.00,,,0.00,WUHU216HW,2013-06-16 20:50:00,
2013-06-16 14:51:00,74.5,40.1,29.89,WNW,293,11.0,11.0,29,0.00,,,0.00,WUHU216HW,2013-06-16 20:51:00,
2013-06-16 14:52:00,74.5,39.1,29.89,West,270,6.7,11.0,28,0.00,,,0.00,WUHU216HW,2013-06-16 20:52:00,
2013-06-16 14:54:00,74.5,39.1,29.89,NNW,338,10.1,11.0,28,0.00,,,0.00,WUHU216HW,2013-06-16 20:54:00,
2013-06-16 14:55:00,74.5,39.1,29.89,North,0,5.6,11.0,28,0.00,,,0.00,WUHU216HW,2013-06-16 20:55:00,
2013-06-16 14:56:00,74.5,40.1,29.89,North,0,6.9,11.0,29,0.00,,,0.00,WUHU216HW,2013-06-16 20:56:00,
2013-06-16 14:58:00,74.3,41.0,29.89,North,0,11.4,11.4,30,0.00,,,0.00,WUHU216HW,2013-06-16 20:58:00,
2013-06-16 14:59:00,74.3,41.0,29.89,North,0,7.8,11.4,30,0.00,,,0.00,WUHU216HW,2013-06-16 20:59:00,
2013-06-16 15:00:00,74.3,41.0,29.89,North,0,7.8,11.4,30,0.00,,,0.00,WUHU216HW,2013-06-16 21:00:00,
2013-06-16 15:01:00,74.3,41.0,29.89,North,0,7.8,11.4,30,0.00,,,0.00,WUHU216HW,2013-06-16 21:01:00,
2013-06-16 15:02:00,74.3,41.0,29.89,North,0,7.8,11.4,30,0.00,,,0.00,WUHU216HW,2013-06-16 21:02:00,
2013-06-16 15:03:00,74.7,41.3,29.89,NNW,338,12.1,12.1,30,0.00,,,0.00,WUHU216HW,2013-06-16 21:03:00,
2013-06-16 15:05:00,74.7,41.3,29.90,NW,315,10.5,12.1,30,0.00,,,0.00,WUHU216HW,2013-06-16 21:05:00,
2013-06-16 15:07:00,74.9,41.4,29.89,NNW,338,9.8,12.3,30,0.00,,,0.00,WUHU216HW,2013-06-16 21:07:00,
2013-06-16 15:08:00,75.1,41.6,29.89,NNW,338,5.4,12.3,30,0.00,,,0.00,WUHU216HW,2013-06-16 21:08:00,
2013-06-16 15:10:00,75.1,40.6,29.89,NNW,338,10.3,12.3,29,0.00,,,0.00,WUHU216HW,2013-06-16 21:10:00,
2013-06-16 15:12:00,74.9,40.4,29.90,NW,315,5.8,12.3,29,0.00,,,0.00,WUHU216HW,2013-06-16 21:12:00,
2013-06-16 15:13:00,74.5,40.1,29.90,North,0,6.3,12.3,29,0.00,,,0.00,WUHU216HW,2013-06-16 21:13:00,
2013-06-16 15:15:00,74.0,40.6,29.90,NW,315,9.4,12.3,30,0.00,,,0.00,WUHU216HW,2013-06-16 21:15:00,
2013-06-16 15:17:00,74.2,39.8,29.90,NNW,338,6.3,12.1,29,0.00,,,0.00,WUHU216HW,2013-06-16 21:17:00,
2013-06-16 15:19:00,74.2,39.8,29.90,WNW,293,6.3,12.1,29,0.00,,,0.00,WUHU216HW,2013-06-16 21:19:00,
2013-06-16 15:21:00,74.3,40.0,29.90,North,0,9.4,11.2,29,0.00,,,0.00,WUHU216HW,2013-06-16 21:21:00,
2013-06-16 15:22:00,74.3,40.0,29.90,North,0,5.1,11.2,29,0.00,,,0.00,WUHU216HW,2013-06-16 21:22:00,
2013-06-16 15:24:00,74.2,40.8,29.90,NW,315,9.8,10.5,30,0.00,,,0.00,WUHU216HW,2013-06-16 21:24:00,
2013-06-16 15:26:00,74.3,41.0,29.90,NW,315,11.2,11.2,30,0.00,,,0.00,WUHU216HW,2013-06-16 21:26:00,
2013-06-16 15:27:00,74.7,41.3,29.90,NW,315,9.6,11.2,30,0.00,,,0.00,WUHU216HW,2013-06-16 21:27:00,
2013-06-16 15:29:00,75.2,40.8,29.90,NW,315,8.5,11.2,29,0.00,,,0.00,WUHU216HW,2013-06-16 21:29:00,
2013-06-16 15:31:00,75.6,38.0,29.90,North,0,4.7,11.2,26,0.00,,,0.00,WUHU216HW,2013-06-16 21:31:00,
2013-06-16 15:32:00,75.4,39.9,29.90,NNW,338,8.3,11.2,28,0.00,,,0.00,WUHU216HW,2013-06-16 21:32:00,
2013-06-16 15:34:00,74.5,39.1,29.90,North,0,12.8,14.3,28,0.00,,,0.00,WUHU216HW,2013-06-16 21:34:00,
2013-06-16 15:36:00,74.0,36.5,29.90,North,0,9.4,14.3,26,0.00,,,0.00,WUHU216HW,2013-06-16 21:36:00,
2013-06-16 15:37:00,73.8,38.4,29.90,NNW,338,5.6,14.3,28,0.00,,,0.00,WUHU216HW,2013-06-16 21:37:00,
2013-06-16 15:39:00,73.8,38.4,29.90,NNW,338,8.5,14.3,28,0.00,,,0.00,WUHU216HW,2013-06-16 21:39:00,
2013-06-16 15:41:00,73.6,38.3,29.90,North,0,5.1,14.3,28,0.00,,,0.00,WUHU216HW,2013-06-16 21:41:00,
2013-06-16 15:42:00,73.4,38.2,29.90,North,0,5.1,14.3,28,0.00,,,0.00,WUHU216HW,2013-06-16 21:42:00,
2013-06-16 15:43:00,73.6,39.3,29.90,NNW,338,10.1,14.3,29,0.00,,,0.00,WUHU216HW,2013-06-16 21:43:00,
2013-06-16 15:44:00,73.6,40.3,29.90,NNW,338,5.4,12.8,30,0.00,,,0.00,WUHU216HW,2013-06-16 21:44:00,
2013-06-16 15:46:00,73.8,40.5,29.90,NNW,338,9.8,11.4,30,0.00,,,0.00,WUHU216HW,2013-06-16 21:46:00,
2013-06-16 15:47:00,74.0,38.6,29.90,North,0,6.9,11.4,28,0.00,,,0.00,WUHU216HW,2013-06-16 21:47:00,
2013-06-16 15:48:00,73.8,38.4,29.90,North,0,5.4,11.4,28,0.00,,,0.00,WUHU216HW,2013-06-16 21:48:00,
2013-06-16 15:49:00,73.8,39.4,29.90,NNW,338,5.8,11.4,29,0.00,,,0.00,WUHU216HW,2013-06-16 21:49:00,
2013-06-16 15:51:00,74.2,39.8,29.90,NNW,338,4.7,11.4,29,0.00,,,0.00,WUHU216HW,2013-06-16 21:51:00,
2013-06-16 15:52:00,74.3,40.0,29.90,North,0,5.6,11.4,29,0.00,,,0.00,WUHU216HW,2013-06-16 21:52:00,
2013-06-16 15:53:00,74.5,39.1,29.90,North,0,5.8,11.4,28,0.00,,,0.00,WUHU216HW,2013-06-16 21:53:00,
2013-06-16 15:55:00,74.3,40.0,29.90,NW,315,5.6,11.4,29,0.00,,,0.00,WUHU216HW,2013-06-16 21:55:00,
2013-06-16 15:56:00,74.5,39.1,29.90,NNW,338,4.0,10.5,28,0.00,,,0.00,WUHU216HW,2013-06-16 21:56:00,
2013-06-16 15:57:00,74.5,39.1,29.90,North,0,7.6,9.4,28,0.00,,,0.00,WUHU216HW,2013-06-16 21:57:00,
2013-06-16 15:59:00,74.5,39.1,29.90,NNW,338,5.1,9.4,28,0.00,,,0.00,WUHU216HW,2013-06-16 21:59:00,
2013-06-16 16:00:00,74.5,37.1,29.90,North,0,4.5,8.7,26,0.00,,,0.00,WUHU216HW,2013-06-16 22:00:00,
2013-06-16 16:01:00,74.3,38.9,29.90,NNE,23,9.2,9.2,28,0.00,,,0.00,WUHU216HW,2013-06-16 22:01:00,
2013-06-16 16:02:00,74.2,36.7,29.90,North,0,4.5,9.4,26,0.00,,,0.00,WUHU216HW,2013-06-16 22:02:00,
2013-06-16 16:04:00,74.2,38.8,29.90,North,0,6.0,9.4,28,0.00,,,0.00,WUHU216HW,2013-06-16 22:04:00,
2013-06-16 16:06:00,74.2,36.7,29.90,NNW,338,5.6,9.4,26,0.00,,,0.00,WUHU216HW,2013-06-16 22:06:00,
2013-06-16 16:07:00,74.2,38.8,29.90,North,0,2.9,9.4,28,0.00,,,0.00,WUHU216HW,2013-06-16 22:07:00,
2013-06-16 16:09:00,74.5,36.0,29.90,North,0,6.9,9.4,25,0.00,,,0.00,WUHU216HW,2013-06-16 22:09:00,
2013-06-16 16:11:00,74.3,35.8,29.90,North,0,4.0,9.4,25,0.00,,,0.00,WUHU216HW,2013-06-16 22:11:00,
2013-06-16 16:12:00,74.3,36.9,29.90,North,0,2.9,8.7,26,0.00,,,0.00,WUHU216HW,2013-06-16 22:12:00,
2013-06-16 16:13:00,74.3,38.9,29.90,North,0,9.6,9.6,28,0.00,,,0.00,WUHU216HW,2013-06-16 22:13:00,
2013-06-16 16:14:00,74.3,40.0,29.90,North,0,9.2,9.6,29,0.00,,,0.00,WUHU216HW,2013-06-16 22:14:00,
2013-06-16 16:16:00,74.9,37.4,29.90,NE,45,9.2,12.1,26,0.00,,,0.00,WUHU216HW,2013-06-16 22:16:00,
2013-06-16 16:17:00,74.9,39.4,29.90,North,0,8.5,12.1,28,0.00,,,0.00,WUHU216HW,2013-06-16 22:17:00,
2013-06-16 16:18:00,74.7,37.2,29.90,North,0,5.8,12.1,26,0.00,,,0.00,WUHU216HW,2013-06-16 22:18:00,
2013-06-16 16:19:00,74.5,37.1,29.90,North,0,5.4,12.1,26,0.00,,,0.00,WUHU216HW,2013-06-16 22:19:00,
2013-06-16 16:21:00,74.3,38.9,29.90,NNE,23,5.4,12.1,28,0.00,,,0.00,WUHU216HW,2013-06-16 22:21:00,
2013-06-16 16:22:00,74.3,38.9,29.90,North,0,4.0,12.1,28,0.00,,,0.00,WUHU216HW,2013-06-16 22:22:00,
2013-06-16 16:24:00,74.5,39.1,29.90,North,0,5.4,12.1,28,0.00,,,0.00,WUHU216HW,2013-06-16 22:24:00,
2013-06-16 16:26:00,74.9,40.4,29.90,NNW,338,5.4,9.8,29,0.00,,,0.00,WUHU216HW,2013-06-16 22:26:00,
2013-06-16 16:27:00,74.9,40.4,29.90,NNW,338,3.6,9.8,29,0.00,,,0.00,WUHU216HW,2013-06-16 22:27:00,
2013-06-16 16:28:00,75.2,40.8,29.90,NNW,338,7.2,9.8,29,0.00,,,0.00,WUHU216HW,2013-06-16 22:28:00,
2013-06-16 16:29:00,75.2,40.8,29.89,NNW,338,7.2,9.8,29,0.00,,,0.00,WUHU216HW,2013-06-16 22:29:00,
2013-06-16 16:32:00,75.8,40.1,29.90,North,0,7.4,9.8,28,0.00,,,0.00,WUHU216HW,2013-06-16 22:32:00,
2013-06-16 16:33:00,75.2,39.7,29.90,NNW,338,7.4,9.8,28,0.00,,,0.00,WUHU216HW,2013-06-16 22:33:00,
2013-06-16 16:34:00,75.2,39.7,29.90,NNW,338,7.4,9.8,28,0.00,,,0.00,WUHU216HW,2013-06-16 22:34:00,
2013-06-16 16:35:00,75.2,39.7,29.90,NNW,338,7.4,9.8,28,0.00,,,0.00,WUHU216HW,2013-06-16 22:35:00,
2013-06-16 16:37:00,75.2,39.7,29.90,NW,315,6.0,9.4,28,0.00,,,0.00,WUHU216HW,2013-06-16 22:37:00,
2013-06-16 16:38:00,75.6,38.0,29.90,NNW,338,8.1,9.4,26,0.00,,,0.00,WUHU216HW,2013-06-16 22:38:00,
2013-06-16 16:39:00,75.6,40.1,29.90,NNW,338,10.3,10.3,28,0.00,,,0.00,WUHU216HW,2013-06-16 22:39:00,
2013-06-16 16:40:00,76.0,40.3,29.89,NNW,338,6.9,10.3,28,0.00,,,0.00,WUHU216HW,2013-06-16 22:40:00,
2013-06-16 16:42:00,76.1,38.4,29.90,NNW,338,8.3,10.3,26,0.00,,,0.00,WUHU216HW,2013-06-16 22:42:00,
2013-06-16 16:43:00,76.1,40.5,29.90,NNW,338,9.4,10.3,28,0.00,,,0.00,WUHU216HW,2013-06-16 22:43:00,
2013-06-16 16:44:00,76.0,38.3,29.90,NNW,338,12.5,12.5,26,0.00,,,0.00,WUHU216HW,2013-06-16 22:44:00,
2013-06-16 16:46:00,75.4,39.9,29.90,North,0,6.3,12.5,28,0.00,,,0.00,WUHU216HW,2013-06-16 22:46:00,
2013-06-16 16:47:00,75.2,37.6,29.89,NNW,338,5.4,12.5,26,0.00,,,0.00,WUHU216HW,2013-06-16 22:47:00,
2013-06-16 16:48:00,74.7,39.3,29.90,North,0,5.4,12.5,28,0.00,,,0.00,WUHU216HW,2013-06-16 22:48:00,
2013-06-16 16:49:00,74.5,39.1,29.89,North,0,6.7,12.5,28,0.00,,,0.00,WUHU216HW,2013-06-16 22:49:00,
2013-06-16 16:52:00,74.9,39.4,29.89,NNW,338,7.4,12.5,28,0.00,,,0.00,WUHU216HW,2013-06-16 22:52:00,
2013-06-16 16:53:00,74.9,39.4,29.89,NNW,338,6.7,12.5,28,0.00,,,0.00,WUHU216HW,2013-06-16 22:53:00,
2013-06-16 16:54:00,75.1,37.5,29.89,North,0,6.3,9.6,26,0.00,,,0.00,WUHU216HW,2013-06-16 22:54:00,
2013-06-16 16:55:00,74.9,38.3,29.89,North,0,4.9,8.9,27,0.00,,,0.00,WUHU216HW,2013-06-16 22:55:00,
2013-06-16 16:57:00,74.7,38.3,29.89,NNW,338,6.3,8.9,27,0.00,,,0.00,WUHU216HW,2013-06-16 22:57:00,
2013-06-16 16:58:00,74.7,40.2,29.89,North,0,4.7,8.9,29,0.00,,,0.00,WUHU216HW,2013-06-16 22:58:00,
2013-06-16 16:59:00,74.9,39.4,29.89,North,0,4.0,8.9,28,0.00,,,0.00,WUHU216HW,2013-06-16 22:59:00,
2013-06-16 17:00:00,74.9,39.4,29.89,North,0,4.0,8.9,28,0.00,,,0.00,WUHU216HW,2013-06-16 23:00:00,
2013-06-16 17:02:00,74.9,38.3,29.89,North,0,4.7,8.9,27,0.00,,,0.00,WUHU216HW,2013-06-16 23:02:00,
2013-06-16 17:03:00,74.9,37.4,29.89,North,0,5.4,8.9,26,0.00,,,0.00,WUHU216HW,2013-06-16 23:03:00,
2013-06-16 17:05:00,74.9,37.4,29.89,North,0,0.7,8.9,26,0.00,,,0.00,WUHU216HW,2013-06-16 23:05:00,
2013-06-16 17:07:00,75.1,39.5,29.89,North,0,7.2,8.1,28,0.00,,,0.00,WUHU216HW,2013-06-16 23:07:00,
2013-06-16 17:08:00,75.1,37.5,29.89,NNE,23,4.0,8.1,26,0.00,,,0.00,WUHU216HW,2013-06-16 23:08:00,
2013-06-16 17:10:00,75.2,40.8,29.89,North,0,5.1,8.7,29,0.00,,,0.00,WUHU216HW,2013-06-16 23:10:00,
2013-06-16 17:12:00,75.2,38.7,29.89,North,0,8.3,8.7,27,0.00,,,0.00,WUHU216HW,2013-06-16 23:12:00,
2013-06-16 17:13:00,75.2,39.7,29.89,North,0,5.6,8.7,28,0.00,,,0.00,WUHU216HW,2013-06-16 23:13:00,
2013-06-16 17:14:00,75.1,37.5,29.89,NNW,338,2.5,8.7,26,0.00,,,0.00,WUHU216HW,2013-06-16 23:14:00,
2013-06-16 17:15:00,75.1,39.5,29.89,NNW,338,4.9,8.7,28,0.00,,,0.00,WUHU216HW,2013-06-16 23:15:00,
2013-06-16 17:16:00,75.1,39.5,29.89,NNW,338,4.9,8.7,28,0.00,,,0.00,WUHU216HW,2013-06-16 23:16:00,
2013-06-16 17:17:00,75.2,38.7,29.89,North,0,10.1,10.1,27,0.00,,,0.00,WUHU216HW,2013-06-16 23:17:00,
2013-06-16 17:18:00,75.2,39.7,29.89,North,0,7.2,10.1,28,0.00,,,0.00,WUHU216HW,2013-06-16 23:18:00,
2013-06-16 17:21:00,75.1,38.5,29.89,North,0,7.6,10.5,27,0.00,,,0.00,WUHU216HW,2013-06-16 23:21:00,
2013-06-16 17:23:00,74.9,39.4,29.89,North,0,6.9,10.5,28,0.00,,,0.00,WUHU216HW,2013-06-16 23:23:00,
2013-06-16 17:24:00,74.7,39.3,29.89,North,0,3.4,10.5,28,0.00,,,0.00,WUHU216HW,2013-06-16 23:24:00,
2013-06-16 17:26:00,74.7,39.3,29.89,NW,315,6.9,10.5,28,0.00,,,0.00,WUHU216HW,2013-06-16 23:26:00,
2013-06-16 17:28:00,75.2,40.8,29.89,North,0,8.1,10.5,29,0.00,,,0.00,WUHU216HW,2013-06-16 23:28:00,
2013-06-16 17:30:00,75.2,39.7,29.89,NNW,338,11.6,11.6,28,0.00,,,0.00,WUHU216HW,2013-06-16 23:30:00,
2013-06-16 17:31:00,75.1,39.5,29.89,North,0,10.1,11.6,28,0.00,,,0.00,WUHU216HW,2013-06-16 23:31:00,
2013-06-16 17:33:00,74.9,39.4,29.89,NNW,338,12.1,12.1,28,0.00,,,0.00,WUHU216HW,2013-06-16 23:33:00,
2013-06-16 17:35:00,74.9,40.4,29.89,NNW,338,12.8,12.8,29,0.00,,,0.00,WUHU216HW,2013-06-16 23:35:00,
2013-06-16 17:36:00,74.9,39.4,29.89,NNW,338,9.8,13.0,28,0.00,,,0.00,WUHU216HW,2013-06-16 23:36:00,
2013-06-16 17:37:00,74.9,40.4,29.89,North,0,6.5,13.0,29,0.00,,,0.00,WUHU216HW,2013-06-16 23:37:00,
2013-06-16 17:38:00,74.9,39.4,29.89,NNW,338,5.4,13.0,28,0.00,,,0.00,WUHU216HW,2013-06-16 23:38:00,
2013-06-16 17:41:00,74.5,40.1,29.89,NNW,338,11.9,13.0,29,0.00,,,0.00,WUHU216HW,2013-06-16 23:41:00,
2013-06-16 17:42:00,74.7,39.3,29.89,North,0,7.4,13.0,28,0.00,,,0.00,WUHU216HW,2013-06-16 23:42:00,
2013-06-16 17:43:00,74.7,39.3,29.89,NNW,338,3.6,13.0,28,0.00,,,0.00,WUHU216HW,2013-06-16 23:43:00,
2013-06-16 17:46:00,74.9,39.4,29.89,NNW,338,6.9,11.9,28,0.00,,,0.00,WUHU216HW,2013-06-16 23:46:00,
2013-06-16 17:47:00,74.7,39.3,29.89,NNW,338,5.4,11.9,28,0.00,,,0.00,WUHU216HW,2013-06-16 23:47:00,
2013-06-16 17:48:00,74.7,40.2,29.89,North,0,7.4,11.9,29,0.00,,,0.00,WUHU216HW,2013-06-16 23:48:00,
2013-06-16 17:49:00,74.7,40.2,29.89,North,0,7.4,11.9,29,0.00,,,0.00,WUHU216HW,2013-06-16 23:49:00,
2013-06-16 17:51:00,74.9,40.4,29.89,NNW,338,8.3,11.9,29,0.00,,,0.00,WUHU216HW,2013-06-16 23:51:00,
2013-06-16 17:53:00,75.1,39.5,29.89,NNW,338,10.3,11.4,28,0.00,,,0.00,WUHU216HW,2013-06-16 23:53:00,
2013-06-16 17:54:00,75.2,37.6,29.89,North,0,10.1,11.4,26,0.00,,,0.00,WUHU216HW,2013-06-16 23:54:00,
2013-06-16 17:56:00,74.9,37.4,29.89,North,0,8.5,12.5,26,0.00,,,0.00,WUHU216HW,2013-06-16 23:56:00,
2013-06-16 17:58:00,74.7,39.3,29.89,North,0,6.3,12.5,28,0.00,,,0.00,WUHU216HW,2013-06-16 23:58:00,
2013-06-16 17:59:00,74.7,39.3,29.89,North,0,4.9,12.5,28,0.00,,,0.00,WUHU216HW,2013-06-16 23:59:00,
2013-06-16 18:01:00,74.9,39.4,29.89,NW,315,7.8,12.5,28,0.00,,,0.00,WUHU216HW,2013-06-17 00:01:00,
2013-06-16 18:02:00,74.9,39.4,29.89,NW,315,7.8,12.5,28,0.00,,,0.00,WUHU216HW,2013-06-17 00:02:00,
2013-06-16 18:03:00,75.2,39.7,29.89,North,0,4.9,12.5,28,0.00,,,0.00,WUHU216HW,2013-06-17 00:03:00,
2013-06-16 18:04:00,75.2,40.8,29.89,North,0,4.3,12.5,29,0.00,,,0.00,WUHU216HW,2013-06-17 00:04:00,
2013-06-16 18:07:00,75.4,39.9,29.89,NNW,338,7.4,10.3,28,0.00,,,0.00,WUHU216HW,2013-06-17 00:07:00,
2013-06-16 18:08:00,75.6,41.0,29.89,NNW,338,7.2,10.3,29,0.00,,,0.00,WUHU216HW,2013-06-17 00:08:00,
2013-06-16 18:09:00,75.6,41.0,29.89,NW,315,6.3,10.3,29,0.00,,,0.00,WUHU216HW,2013-06-17 00:09:00,
2013-06-16 18:12:00,75.8,40.1,29.89,NNW,338,7.6,10.3,28,0.00,,,0.00,WUHU216HW,2013-06-17 00:12:00,
2013-06-16 18:14:00,75.6,39.0,29.89,NNW,338,6.0,10.3,27,0.00,,,0.00,WUHU216HW,2013-06-17 00:14:00,
2013-06-16 18:17:00,74.7,40.2,29.89,North,0,6.3,10.1,29,0.00,,,0.00,WUHU216HW,2013-06-17 00:17:00,
2013-06-16 18:18:00,74.5,39.1,29.89,North,0,7.2,10.1,28,0.00,,,0.00,WUHU216HW,2013-06-17 00:18:00,
2013-06-16 18:19:00,74.5,41.1,29.89,NNW,338,7.4,10.1,30,0.00,,,0.00,WUHU216HW,2013-06-17 00:19:00,
2013-06-16 18:22:00,74.7,40.2,29.89,NW,315,6.5,10.1,29,0.00,,,0.00,WUHU216HW,2013-06-17 00:22:00,
2013-06-16 18:23:00,74.9,40.4,29.89,NNW,338,9.8,10.1,29,0.00,,,0.00,WUHU216HW,2013-06-17 00:23:00,
2013-06-16 18:24:00,74.9,40.4,29.88,NNW,338,7.6,9.8,29,0.00,,,0.00,WUHU216HW,2013-06-17 00:24:00,
2013-06-16 18:27:00,75.4,40.9,29.89,North,0,6.9,9.8,29,0.00,,,0.00,WUHU216HW,2013-06-17 00:27:00,
2013-06-16 18:28:00,75.2,40.8,29.89,NW,315,7.6,9.8,29,0.00,,,0.00,WUHU216HW,2013-06-17 00:28:00,
2013-06-16 18:29:00,75.2,40.8,29.89,NNW,338,7.8,9.8,29,0.00,,,0.00,WUHU216HW,2013-06-17 00:29:00,
2013-06-16 18:30:00,75.2,40.8,29.88,NW,315,7.8,9.8,29,0.00,,,0.00,WUHU216HW,2013-06-17 00:30:00,
2013-06-16 18:32:00,75.8,42.2,29.88,WNW,293,6.5,9.8,30,0.00,,,0.00,WUHU216HW,2013-06-17 00:32:00,
2013-06-16 18:33:00,75.8,42.2,29.89,NNW,338,7.8,9.8,30,0.00,,,0.00,WUHU216HW,2013-06-17 00:33:00,
2013-06-16 18:34:00,75.8,42.2,29.89,NW,315,8.5,9.8,30,0.00,,,0.00,WUHU216HW,2013-06-17 00:34:00,
2013-06-16 18:35:00,75.8,42.2,29.89,NNW,338,8.3,9.8,30,0.00,,,0.00,WUHU216HW,2013-06-17 00:35:00,
2013-06-16 18:37:00,76.3,42.8,29.89,NNW,338,6.7,9.2,30,0.00,,,0.00,WUHU216HW,2013-06-17 00:37:00,
2013-06-16 18:38:00,76.5,42.9,29.89,NW,315,4.0,9.2,30,0.00,,,0.00,WUHU216HW,2013-06-17 00:38:00,
2013-06-16 18:39:00,76.7,43.0,29.89,NNW,338,5.8,8.9,30,0.00,,,0.00,WUHU216HW,2013-06-17 00:39:00,
2013-06-16 18:40:00,76.7,43.0,29.89,NW,315,7.2,8.9,30,0.00,,,0.00,WUHU216HW,2013-06-17 00:40:00,
2013-06-16 18:42:00,76.3,41.7,29.88,NW,315,7.6,9.8,29,0.00,,,0.00,WUHU216HW,2013-06-17 00:42:00,
2013-06-16 18:43:00,76.0,41.4,29.88,NW,315,9.2,9.8,29,0.00,,,0.00,WUHU216HW,2013-06-17 00:43:00,
2013-06-16 18:45:00,75.6,42.1,29.88,NW,315,8.5,9.8,30,0.00,,,0.00,WUHU216HW,2013-06-17 00:45:00,
2013-06-16 18:47:00,75.1,41.6,29.88,NW,315,8.9,9.8,30,0.00,,,0.00,WUHU216HW,2013-06-17 00:47:00,
2013-06-16 18:49:00,74.9,42.2,29.88,NW,315,8.5,9.8,31,0.00,,,0.00,WUHU216HW,2013-06-17 00:49:00,
2013-06-16 18:50:00,74.9,41.4,29.89,NW,315,7.8,9.8,30,0.00,,,0.00,WUHU216HW,2013-06-17 00:50:00,
2013-06-16 18:51:00,74.7,42.0,29.89,NW,315,8.3,9.8,31,0.00,,,0.00,WUHU216HW,2013-06-17 00:51:00,
2013-06-16 18:52:00,74.9,41.4,29.88,WNW,293,8.5,9.6,30,0.00,,,0.00,WUHU216HW,2013-06-17 00:52:00,
2013-06-16 18:54:00,74.9,40.4,29.88,NW,315,11.0,11.0,29,0.00,,,0.00,WUHU216HW,2013-06-17 00:54:00,
2013-06-16 18:55:00,74.9,40.4,29.88,NNW,338,11.4,11.4,29,0.00,,,0.00,WUHU216HW,2013-06-17 00:55:00,
2013-06-16 18:56:00,75.1,40.6,29.88,NW,315,9.2,11.4,29,0.00,,,0.00,WUHU216HW,2013-06-17 00:56:00,
2013-06-16 18:57:00,75.2,41.8,29.89,NW,315,9.4,11.4,30,0.00,,,0.00,WUHU216HW,2013-06-17 00:57:00,
2013-06-16 19:00:00,74.9,42.2,29.89,NW,315,7.8,11.4,31,0.00,,,0.00,WUHU216HW,2013-06-17 01:00:00,
2013-06-16 19:01:00,74.9,41.4,29.89,NNW,338,10.5,11.4,30,0.00,,,0.00,WUHU216HW,2013-06-17 01:01:00,
2013-06-16 19:03:00,75.2,41.8,29.89,North,0,7.6,11.4,30,0.00,,,0.00,WUHU216HW,2013-06-17 01:03:00,
2013-06-16 19:05:00,75.2,41.8,29.89,WNW,293,9.6,10.5,30,0.00,,,0.00,WUHU216HW,2013-06-17 01:05:00,
2013-06-16 19:06:00,75.1,41.6,29.89,NW,315,7.8,10.5,30,0.00,,,0.00,WUHU216HW,2013-06-17 01:06:00,
2013-06-16 19:07:00,74.9,41.4,29.89,NNW,338,10.5,10.7,30,0.00,,,0.00,WUHU216HW,2013-06-17 01:07:00,
2013-06-16 19:08:00,74.9,41.4,29.89,NNW,338,10.1,10.7,30,0.00,,,0.00,WUHU216HW,2013-06-17 01:08:00,
2013-06-16 19:10:00,74.9,42.2,29.89,NW,315,5.6,10.7,31,0.00,,,0.00,WUHU216HW,2013-06-17 01:10:00,
2013-06-16 19:11:00,74.7,42.0,29.89,NNW,338,6.9,10.7,31,0.00,,,0.00,WUHU216HW,2013-06-17 01:11:00,
2013-06-16 19:12:00,74.9,42.2,29.89,NNW,338,7.6,10.7,31,0.00,,,0.00,WUHU216HW,2013-06-17 01:12:00,
2013-06-16 19:13:00,75.1,42.4,29.89,NNW,338,9.2,10.7,31,0.00,,,0.00,WUHU216HW,2013-06-17 01:13:00,
2013-06-16 19:16:00,75.2,42.5,29.89,NNW,338,6.9,10.7,31,0.00,,,0.00,WUHU216HW,2013-06-17 01:16:00,
2013-06-16 19:17:00,75.4,43.5,29.89,NNW,338,6.9,10.5,32,0.00,,,0.00,WUHU216HW,2013-06-17 01:17:00,
2013-06-16 19:18:00,75.4,43.5,29.89,NNW,338,7.2,10.1,32,0.00,,,0.00,WUHU216HW,2013-06-17 01:18:00,
2013-06-16 19:21:00,76.0,43.2,29.89,NW,315,6.7,11.2,31,0.00,,,0.00,WUHU216HW,2013-06-17 01:21:00,
2013-06-16 19:22:00,76.1,43.3,29.89,NNW,338,7.8,11.2,31,0.00,,,0.00,WUHU216HW,2013-06-17 01:22:00,
2013-06-16 19:23:00,76.3,43.5,29.89,NW,315,8.1,11.2,31,0.00,,,0.00,WUHU216HW,2013-06-17 01:23:00,
2013-06-16 19:26:00,76.7,43.8,29.89,NW,315,7.2,11.2,31,0.00,,,0.00,WUHU216HW,2013-06-17 01:26:00,
2013-06-16 19:27:00,76.9,44.0,29.89,NNW,338,9.8,11.2,31,0.00,,,0.00,WUHU216HW,2013-06-17 01:27:00,
2013-06-16 19:28:00,76.9,43.2,29.89,NW,315,8.7,11.4,30,0.00,,,0.00,WUHU216HW,2013-06-17 01:28:00,
2013-06-16 19:29:00,77.0,44.1,29.89,NNW,338,9.2,11.4,31,0.00,,,0.00,WUHU216HW,2013-06-17 01:29:00,
2013-06-16 19:31:00,77.2,44.3,29.89,NNW,338,6.0,11.4,31,0.00,,,0.00,WUHU216HW,2013-06-17 01:31:00,
2013-06-16 19:32:00,77.2,44.3,29.89,NNW,338,6.0,11.4,31,0.00,,,0.00,WUHU216HW,2013-06-17 01:32:00,
2013-06-16 19:33:00,77.4,44.5,29.89,NNW,338,9.8,11.4,31,0.00,,,0.00,WUHU216HW,2013-06-17 01:33:00,
2013-06-16 19:34:00,77.4,45.2,29.89,NNW,338,7.8,11.4,32,0.00,,,0.00,WUHU216HW,2013-06-17 01:34:00,
2013-06-16 19:36:00,76.9,44.7,29.89,NNW,338,8.1,11.4,32,0.00,,,0.00,WUHU216HW,2013-06-17 01:36:00,
2013-06-16 19:37:00,76.9,45.5,29.89,North,0,7.8,11.4,33,0.00,,,0.00,WUHU216HW,2013-06-17 01:37:00,
2013-06-16 19:38:00,76.5,45.2,29.89,NNW,338,8.9,11.0,33,0.00,,,0.00,WUHU216HW,2013-06-17 01:38:00,
2013-06-16 19:39:00,76.5,44.4,29.89,NNW,338,9.2,11.0,32,0.00,,,0.00,WUHU216HW,2013-06-17 01:39:00,
2013-06-16 19:42:00,76.5,45.2,29.89,NNW,338,6.3,11.0,33,0.00,,,0.00,WUHU216HW,2013-06-17 01:42:00,
2013-06-16 19:43:00,76.1,45.6,29.89,NNW,338,8.1,10.1,34,0.00,,,0.00,WUHU216HW,2013-06-17 01:43:00,
2013-06-16 19:44:00,76.1,45.6,29.89,NNW,338,8.5,10.1,34,0.00,,,0.00,WUHU216HW,2013-06-17 01:44:00,
2013-06-16 19:47:00,76.0,46.2,29.90,NNW,338,6.5,10.1,35,0.00,,,0.00,WUHU216HW,2013-06-17 01:47:00,
2013-06-16 19:48:00,75.8,46.0,29.90,North,0,8.5,10.1,35,0.00,,,0.00,WUHU216HW,2013-06-17 01:48:00,
2013-06-16 19:50:00,75.4,47.3,29.90,NNW,338,9.6,11.9,37,0.00,,,0.00,WUHU216HW,2013-06-17 01:50:00,
2013-06-16 19:52:00,75.6,47.3,29.90,NNW,338,9.6,11.9,37,0.00,,,0.00,WUHU216HW,2013-06-17 01:52:00,
2013-06-16 19:53:00,75.6,47.3,29.90,NNW,338,9.6,11.9,37,0.00,,,0.00,WUHU216HW,2013-06-17 01:53:00,
2013-06-16 19:55:00,75.6,47.3,29.90,North,0,7.6,11.9,37,0.00,,,0.00,WUHU216HW,2013-06-17 01:55:00,
2013-06-16 19:57:00,75.2,47.1,29.90,NNW,338,7.6,12.8,37,0.00,,,0.00,WUHU216HW,2013-06-17 01:57:00,
2013-06-16 19:58:00,75.2,47.1,29.90,North,0,8.9,12.8,37,0.00,,,0.00,WUHU216HW,2013-06-17 01:58:00,
2013-06-16 19:59:00,75.2,47.8,29.90,North,0,7.6,12.8,38,0.00,,,0.00,WUHU216HW,2013-06-17 01:59:00,
2013-06-16 20:01:00,75.2,47.1,29.90,NNW,338,9.2,12.8,37,0.00,,,0.00,WUHU216HW,2013-06-17 02:01:00,
2013-06-16 20:02:00,75.2,47.1,29.90,NNW,338,7.2,12.8,37,0.00,,,0.00,WUHU216HW,2013-06-17 02:02:00,
2013-06-16 20:03:00,75.2,47.1,29.90,NNW,338,8.3,12.8,37,0.00,,,0.00,WUHU216HW,2013-06-17 02:03:00,
2013-06-16 20:04:00,75.2,47.1,29.90,NNW,338,8.5,12.8,37,0.00,,,0.00,WUHU216HW,2013-06-17 02:04:00,
2013-06-16 20:06:00,75.1,47.6,29.90,NNW,338,6.7,12.8,38,0.00,,,0.00,WUHU216HW,2013-06-17 02:06:00,
2013-06-16 20:07:00,75.2,47.8,29.90,NNW,338,8.5,10.3,38,0.00,,,0.00,WUHU216HW,2013-06-17 02:07:00,
2013-06-16 20:08:00,75.2,47.8,29.90,NNW,338,6.5,10.3,38,0.00,,,0.00,WUHU216HW,2013-06-17 02:08:00,
2013-06-16 20:09:00,75.2,47.8,29.90,NNW,338,7.6,10.3,38,0.00,,,0.00,WUHU216HW,2013-06-17 02:09:00,
2013-06-16 20:10:00,75.2,47.8,29.90,North,0,7.2,10.3,38,0.00,,,0.00,WUHU216HW,2013-06-17 02:10:00,
2013-06-16 20:11:00,74.9,48.2,29.91,North,0,5.4,10.3,39,0.00,,,0.00,WUHU216HW,2013-06-17 02:11:00,
2013-06-16 20:13:00,74.5,47.9,29.91,NNW,338,4.7,10.3,39,0.00,,,0.00,WUHU216HW,2013-06-17 02:13:00,
2013-06-16 20:15:00,74.0,48.2,29.90,North,0,6.3,10.1,40,0.00,,,0.00,WUHU216HW,2013-06-17 02:15:00,
2013-06-16 20:16:00,73.3,48.2,29.91,North,0,7.8,8.9,41,0.00,,,0.00,WUHU216HW,2013-06-17 02:16:00,
2013-06-16 20:18:00,73.1,48.0,29.91,NNW,338,6.5,8.9,41,0.00,,,0.00,WUHU216HW,2013-06-17 02:18:00,
2013-06-16 20:19:00,73.1,48.0,29.91,North,0,5.4,8.9,41,0.00,,,0.00,WUHU216HW,2013-06-17 02:19:00,
2013-06-16 20:20:00,72.9,48.4,29.91,North,0,3.6,8.9,42,0.00,,,0.00,WUHU216HW,2013-06-17 02:20:00,
2013-06-16 20:21:00,72.5,48.1,29.91,NNW,338,7.6,8.1,42,0.00,,,0.00,WUHU216HW,2013-06-17 02:21:00,
2013-06-16 20:23:00,72.4,47.9,29.91,North,0,5.4,8.7,42,0.00,,,0.00,WUHU216HW,2013-06-17 02:23:00,
2013-06-16 20:24:00,72.0,48.2,29.90,NNW,338,5.8,8.7,43,0.00,,,0.00,WUHU216HW,2013-06-17 02:24:00,
2013-06-16 20:25:00,72.0,48.8,29.91,NNW,338,5.8,8.7,44,0.00,,,0.00,WUHU216HW,2013-06-17 02:25:00,
2013-06-16 20:26:00,71.6,48.4,29.90,NW,315,6.5,8.7,44,0.00,,,0.00,WUHU216HW,2013-06-17 02:26:00,
2013-06-16 20:28:00,71.6,48.4,29.90,NNW,338,8.5,8.7,44,0.00,,,0.00,WUHU216HW,2013-06-17 02:28:00,
2013-06-16 20:29:00,71.6,48.4,29.90,North,0,6.3,8.7,44,0.00,,,0.00,WUHU216HW,2013-06-17 02:29:00,
2013-06-16 20:30:00,71.6,48.4,29.90,NNW,338,6.3,8.7,44,0.00,,,0.00,WUHU216HW,2013-06-17 02:30:00,
2013-06-16 20:31:00,71.3,48.2,29.91,NNW,338,4.7,8.7,44,0.00,,,0.00,WUHU216HW,2013-06-17 02:31:00,
2013-06-16 20:33:00,71.1,48.0,29.91,NNW,338,6.9,8.5,44,0.00,,,0.00,WUHU216HW,2013-06-17 02:33:00,
2013-06-16 20:34:00,70.9,47.8,29.91,NNW,338,7.2,8.5,44,0.00,,,0.00,WUHU216HW,2013-06-17 02:34:00,
2013-06-16 20:36:00,70.6,47.5,29.91,NW,315,6.0,8.9,44,0.00,,,0.00,WUHU216HW,2013-06-17 02:36:00,
2013-06-16 20:37:00,70.2,47.2,29.91,NW,315,8.5,8.9,44,0.00,,,0.00,WUHU216HW,2013-06-17 02:37:00,
2013-06-16 20:38:00,70.2,47.2,29.91,NNW,338,6.9,8.9,44,0.00,,,0.00,WUHU216HW,2013-06-17 02:38:00,
2013-06-16 20:39:00,70.2,47.2,29.91,NNW,338,7.6,8.9,44,0.00,,,0.00,WUHU216HW,2013-06-17 02:39:00,
2013-06-16 20:41:00,69.8,46.8,29.91,NNW,338,10.3,10.3,44,0.00,,,0.00,WUHU216HW,2013-06-17 02:41:00,
2013-06-16 20:42:00,69.7,47.3,29.91,NNW,338,8.5,10.3,45,0.00,,,0.00,WUHU216HW,2013-06-17 02:42:00,
2013-06-16 20:43:00,69.5,47.1,29.91,NNW,338,8.5,10.3,45,0.00,,,0.00,WUHU216HW,2013-06-17 02:43:00,
2013-06-16 20:44:00,69.3,46.4,29.91,NNW,338,6.0,10.3,44,0.00,,,0.00,WUHU216HW,2013-06-17 02:44:00,
2013-06-16 20:46:00,69.1,46.8,29.91,NNW,338,9.2,10.3,45,0.00,,,0.00,WUHU216HW,2013-06-17 02:46:00,
2013-06-16 20:47:00,69.1,46.8,29.91,NNW,338,7.4,10.3,45,0.00,,,0.00,WUHU216HW,2013-06-17 02:47:00,
2013-06-16 20:48:00,68.9,46.6,29.91,NNW,338,7.6,10.3,45,0.00,,,0.00,WUHU216HW,2013-06-17 02:48:00,
2013-06-16 20:49:00,68.9,46.6,29.91,NW,315,7.6,10.3,45,0.00,,,0.00,WUHU216HW,2013-06-17 02:49:00,
2013-06-16 20:52:00,68.6,46.3,29.91,NW,315,6.9,9.2,45,0.00,,,0.00,WUHU216HW,2013-06-17 02:52:00,
2013-06-16 20:53:00,68.4,46.2,29.91,NW,315,6.9,9.2,45,0.00,,,0.00,WUHU216HW,2013-06-17 02:53:00,
2013-06-16 20:54:00,68.4,46.2,29.91,NNW,338,8.1,9.2,45,0.00,,,0.00,WUHU216HW,2013-06-17 02:54:00,
2013-06-16 20:55:00,68.2,46.0,29.91,NNW,338,7.6,9.2,45,0.00,,,0.00,WUHU216HW,2013-06-17 02:55:00,
2013-06-16 20:57:00,67.7,46.1,29.92,NNW,338,7.8,9.4,46,0.00,,,0.00,WUHU216HW,2013-06-17 02:57:00,
2013-06-16 20:59:00,67.3,46.4,29.92,NNW,338,8.1,9.4,47,0.00,,,0.00,WUHU216HW,2013-06-17 02:59:00,
2013-06-16 21:00:00,67.0,46.0,29.92,NNW,338,5.8,9.4,47,0.00,,,0.00,WUHU216HW,2013-06-17 03:00:00,
2013-06-16 21:02:00,66.6,46.3,29.92,NNW,338,6.9,9.4,48,0.00,,,0.00,WUHU216HW,2013-06-17 03:02:00,
2013-06-16 21:03:00,66.6,46.3,29.92,NNW,338,5.8,9.4,48,0.00,,,0.00,WUHU216HW,2013-06-17 03:03:00,
2013-06-16 21:04:00,66.2,46.5,29.92,NNW,338,5.4,9.4,49,0.00,,,0.00,WUHU216HW,2013-06-17 03:04:00,
2013-06-16 21:05:00,66.1,46.4,29.92,North,0,5.6,9.4,49,0.00,,,0.00,WUHU216HW,2013-06-17 03:05:00,
2013-06-16 21:07:00,65.9,46.2,29.92,NNW,338,5.6,8.3,49,0.00,,,0.00,WUHU216HW,2013-06-17 03:07:00,
2013-06-16 21:08:00,65.9,46.2,29.92,North,0,5.6,8.1,49,0.00,,,0.00,WUHU216HW,2013-06-17 03:08:00,
2013-06-16 21:09:00,65.7,46.0,29.92,NNW,338,6.5,6.9,49,0.00,,,0.00,WUHU216HW,2013-06-17 03:09:00,
2013-06-16 21:10:00,65.5,45.8,29.92,NNW,338,5.8,6.9,49,0.00,,,0.00,WUHU216HW,2013-06-17 03:10:00,
2013-06-16 21:12:00,65.5,45.8,29.92,NNW,338,6.3,6.9,49,0.00,,,0.00,WUHU216HW,2013-06-17 03:12:00,
2013-06-16 21:13:00,65.5,45.8,29.92,NW,315,5.1,6.5,49,0.00,,,0.00,WUHU216HW,2013-06-17 03:13:00,
2013-06-16 21:14:00,65.3,46.3,29.92,NW,315,4.3,6.5,50,0.00,,,0.00,WUHU216HW,2013-06-17 03:14:00,
2013-06-16 21:15:00,65.3,46.3,29.92,NW,315,5.1,6.5,50,0.00,,,0.00,WUHU216HW,2013-06-17 03:15:00,
2013-06-16 21:16:00,65.2,46.5,29.92,NW,315,5.8,6.5,51,0.00,,,0.00,WUHU216HW,2013-06-17 03:16:00,
2013-06-16 21:17:00,64.8,45.7,29.92,NNW,338,5.8,6.5,50,0.00,,,0.00,WUHU216HW,2013-06-17 03:17:00,
2013-06-16 21:19:00,64.4,46.4,29.92,NNW,338,4.7,6.5,52,0.00,,,0.00,WUHU216HW,2013-06-17 03:19:00,
2013-06-16 21:20:00,64.4,46.4,29.92,NNW,338,5.1,6.3,52,0.00,,,0.00,WUHU216HW,2013-06-17 03:20:00,
2013-06-16 21:21:00,64.3,46.6,29.92,NW,315,4.7,6.3,53,0.00,,,0.00,WUHU216HW,2013-06-17 03:21:00,
2013-06-16 21:23:00,63.9,46.4,29.92,NW,315,5.1,6.3,53,0.00,,,0.00,WUHU216HW,2013-06-17 03:23:00,
2013-06-16 21:24:00,63.5,46.5,29.92,NW,315,4.9,5.8,54,0.00,,,0.00,WUHU216HW,2013-06-17 03:24:00,
2013-06-16 21:25:00,63.2,46.6,29.92,NW,315,6.3,6.3,55,0.00,,,0.00,WUHU216HW,2013-06-17 03:25:00,
2013-06-16 21:26:00,63.0,46.5,29.92,NW,315,6.3,6.3,55,0.00,,,0.00,WUHU216HW,2013-06-17 03:26:00,
2013-06-16 21:28:00,62.6,46.6,29.92,NW,315,5.1,6.3,56,0.00,,,0.00,WUHU216HW,2013-06-17 03:28:00,
2013-06-16 21:29:00,62.3,46.4,29.92,NW,315,6.0,6.5,56,0.00,,,0.00,WUHU216HW,2013-06-17 03:29:00,
2013-06-16 21:30:00,62.3,46.4,29.92,NW,315,5.4,6.5,56,0.00,,,0.00,WUHU216HW,2013-06-17 03:30:00,
2013-06-16 21:31:00,62.1,46.6,29.92,NW,315,6.0,6.5,57,0.00,,,0.00,WUHU216HW,2013-06-17 03:31:00,
2013-06-16 21:33:00,61.7,46.4,29.92,NW,315,6.0,6.5,57,0.00,,,0.00,WUHU216HW,2013-06-17 03:33:00,
2013-06-16 21:34:00,61.6,46.2,29.92,NW,315,6.5,6.5,57,0.00,,,0.00,WUHU216HW,2013-06-17 03:34:00,
2013-06-16 21:36:00,61.6,46.2,29.92,NW,315,6.3,6.9,57,0.00,,,0.00,WUHU216HW,2013-06-17 03:36:00,
2013-06-16 21:38:00,61.6,46.2,29.92,NW,315,6.5,6.9,57,0.00,,,0.00,WUHU216HW,2013-06-17 03:38:00,
2013-06-16 21:40:00,61.6,46.2,29.92,NW,315,6.5,7.2,57,0.00,,,0.00,WUHU216HW,2013-06-17 03:40:00,
2013-06-16 21:41:00,61.6,46.2,29.92,NW,315,6.9,7.2,57,0.00,,,0.00,WUHU216HW,2013-06-17 03:41:00,
2013-06-16 21:43:00,61.4,46.0,29.92,NW,315,6.3,7.2,57,0.00,,,0.00,WUHU216HW,2013-06-17 03:43:00,
2013-06-16 21:45:00,61.2,45.8,29.92,WNW,293,6.5,7.2,57,0.00,,,0.00,WUHU216HW,2013-06-17 03:45:00,
2013-06-16 21:46:00,61.0,45.7,29.93,NW,315,6.9,7.2,57,0.00,,,0.00,WUHU216HW,2013-06-17 03:46:00,
2013-06-16 21:48:00,61.0,45.7,29.93,NW,315,6.9,7.2,57,0.00,,,0.00,WUHU216HW,2013-06-17 03:48:00,
2013-06-16 21:50:00,61.0,45.7,29.93,NW,315,6.9,6.9,57,0.00,,,0.00,WUHU216HW,2013-06-17 03:50:00,
2013-06-16 21:51:00,61.2,45.8,29.93,WNW,293,4.9,6.9,57,0.00,,,0.00,WUHU216HW,2013-06-17 03:51:00,
2013-06-16 21:53:00,61.4,46.0,29.93,NW,315,6.3,8.5,57,0.00,,,0.00,WUHU216HW,2013-06-17 03:53:00,
2013-06-16 21:55:00,61.6,45.7,29.93,WNW,293,6.0,8.5,56,0.00,,,0.00,WUHU216HW,2013-06-17 03:55:00,
2013-06-16 21:56:00,61.6,45.7,29.93,WNW,293,6.0,8.5,56,0.00,,,0.00,WUHU216HW,2013-06-17 03:56:00,
2013-06-16 21:57:00,61.6,45.7,29.93,WNW,293,6.0,8.5,56,0.00,,,0.00,WUHU216HW,2013-06-17 03:57:00,
2013-06-16 21:58:00,61.6,45.7,29.93,WNW,293,6.0,8.5,56,0.00,,,0.00,WUHU216HW,2013-06-17 03:58:00,
2013-06-16 22:00:00,61.6,45.7,29.94,NW,315,7.2,8.5,56,0.00,,,0.00,WUHU216HW,2013-06-17 04:00:00,
2013-06-16 22:01:00,61.6,45.7,29.94,NW,315,7.2,8.5,56,0.00,,,0.00,WUHU216HW,2013-06-17 04:01:00,
2013-06-16 22:06:00,61.6,46.2,29.94,NNW,338,5.6,7.4,57,0.00,,,0.00,WUHU216HW,2013-06-17 04:06:00,
2013-06-16 22:07:00,61.6,46.2,29.94,NNW,338,6.3,7.4,57,0.00,,,0.00,WUHU216HW,2013-06-17 04:07:00,
2013-06-16 22:11:00,61.2,45.8,29.93,NNW,338,8.5,8.5,57,0.00,,,0.00,WUHU216HW,2013-06-17 04:11:00,
2013-06-16 22:12:00,61.2,46.4,29.94,NNW,338,6.9,8.5,58,0.00,,,0.00,WUHU216HW,2013-06-17 04:12:00,
2013-06-16 22:16:00,61.0,46.2,29.94,NNW,338,8.7,9.2,58,0.00,,,0.00,WUHU216HW,2013-06-17 04:16:00,
2013-06-16 22:17:00,60.8,46.0,29.94,NW,315,8.7,9.4,58,0.00,,,0.00,WUHU216HW,2013-06-17 04:17:00,
2013-06-16 22:21:00,60.8,46.0,29.94,NW,315,8.3,9.8,58,0.00,,,0.00,WUHU216HW,2013-06-17 04:21:00,
2013-06-16 22:22:00,60.8,46.0,29.94,NW,315,8.9,9.8,58,0.00,,,0.00,WUHU216HW,2013-06-17 04:22:00,
2013-06-16 22:23:00,60.8,46.0,29.94,NW,315,8.5,9.8,58,0.00,,,0.00,WUHU216HW,2013-06-17 04:23:00,
2013-06-16 22:26:00,60.8,46.5,29.94,NNW,338,7.6,9.8,59,0.00,,,0.00,WUHU216HW,2013-06-17 04:26:00,
2013-06-16 22:27:00,60.8,46.0,29.94,NNW,338,8.5,9.8,58,0.00,,,0.00,WUHU216HW,2013-06-17 04:27:00,
2013-06-16 22:28:00,60.8,46.0,29.94,NW,315,8.3,9.8,58,0.00,,,0.00,WUHU216HW,2013-06-17 04:28:00,
2013-06-16 22:32:00,60.7,46.4,29.94,NNW,338,8.1,8.9,59,0.00,,,0.00,WUHU216HW,2013-06-17 04:32:00,
2013-06-16 22:33:00,60.5,46.2,29.94,NW,315,6.0,8.5,59,0.00,,,0.00,WUHU216HW,2013-06-17 04:33:00,
2013-06-16 22:37:00,60.3,46.4,29.94,NW,315,7.8,8.5,60,0.00,,,0.00,WUHU216HW,2013-06-17 04:37:00,
2013-06-16 22:38:00,60.3,46.4,29.94,NW,315,7.8,8.5,60,0.00,,,0.00,WUHU216HW,2013-06-17 04:38:00,
2013-06-16 22:42:00,60.3,46.4,29.94,NW,315,6.9,9.6,60,0.00,,,0.00,WUHU216HW,2013-06-17 04:42:00,
2013-06-16 22:43:00,60.3,46.4,29.94,NW,315,7.4,9.6,60,0.00,,,0.00,WUHU216HW,2013-06-17 04:43:00,
2013-06-16 22:48:00,60.1,46.7,29.94,NW,315,6.5,9.6,61,0.00,,,0.00,WUHU216HW,2013-06-17 04:48:00,
2013-06-16 22:53:00,59.6,46.5,29.95,NW,315,6.9,8.1,62,0.00,,,0.00,WUHU216HW,2013-06-17 04:53:00,
2013-06-16 22:58:00,59.4,46.4,29.95,NNW,338,6.0,8.5,62,0.00,,,0.00,WUHU216HW,2013-06-17 04:58:00,
2013-06-16 22:59:00,59.4,46.4,29.95,NNW,338,5.1,8.5,62,0.00,,,0.00,WUHU216HW,2013-06-17 04:59:00,
2013-06-16 23:03:00,59.4,46.4,29.95,NNW,338,5.1,8.5,62,0.00,,,0.00,WUHU216HW,2013-06-17 05:03:00,
2013-06-16 23:04:00,59.4,46.4,29.95,NNW,338,5.6,8.5,62,0.00,,,0.00,WUHU216HW,2013-06-17 05:04:00,
2013-06-16 23:08:00,59.4,46.4,29.95,NW,315,5.1,6.7,62,0.00,,,0.00,WUHU216HW,2013-06-17 05:08:00,
2013-06-16 23:09:00,59.4,46.4,29.95,NW,315,5.1,6.7,62,0.00,,,0.00,WUHU216HW,2013-06-17 05:09:00,
2013-06-16 23:13:00,59.4,46.4,29.95,NW,315,7.2,7.2,62,0.00,,,0.00,WUHU216HW,2013-06-17 05:13:00,
2013-06-16 23:14:00,59.4,46.4,29.95,NNW,338,6.9,7.2,62,0.00,,,0.00,WUHU216HW,2013-06-17 05:14:00,
2013-06-16 23:18:00,59.4,46.4,29.94,NW,315,7.6,8.5,62,0.00,,,0.00,WUHU216HW,2013-06-17 05:18:00,
2013-06-16 23:19:00,59.4,46.4,29.94,NW,315,7.6,8.5,62,0.00,,,0.00,WUHU216HW,2013-06-17 05:19:00,
2013-06-16 23:20:00,59.4,46.4,29.94,NW,315,8.5,8.7,62,0.00,,,0.00,WUHU216HW,2013-06-17 05:20:00,
2013-06-16 23:24:00,59.4,46.0,29.94,NW,315,9.8,10.1,61,0.00,,,0.00,WUHU216HW,2013-06-17 05:24:00,
2013-06-16 23:25:00,59.4,46.4,29.94,NNW,338,6.5,10.1,62,0.00,,,0.00,WUHU216HW,2013-06-17 05:25:00,
2013-06-16 23:29:00,59.4,46.4,29.94,NW,315,7.6,10.1,62,0.00,,,0.00,WUHU216HW,2013-06-17 05:29:00,
2013-06-16 23:30:00,59.4,46.0,29.94,NW,315,7.6,10.1,61,0.00,,,0.00,WUHU216HW,2013-06-17 05:30:00,
2013-06-16 23:34:00,59.2,45.8,29.94,NW,315,6.3,8.7,61,0.00,,,0.00,WUHU216HW,2013-06-17 05:34:00,
2013-06-16 23:36:00,59.2,45.8,29.94,NNW,338,5.8,8.7,61,0.00,,,0.00,WUHU216HW,2013-06-17 05:36:00,
2013-06-16 23:39:00,59.0,45.6,29.94,NW,315,8.1,8.7,61,0.00,,,0.00,WUHU216HW,2013-06-17 05:39:00,
2013-06-16 23:41:00,59.0,45.6,29.94,NW,315,7.4,8.5,61,0.00,,,0.00,WUHU216HW,2013-06-17 05:41:00,
2013-06-16 23:44:00,58.7,45.7,29.94,WNW,293,6.7,8.5,62,0.00,,,0.00,WUHU216HW,2013-06-17 05:44:00,
2013-06-16 23:45:00,58.7,45.7,29.94,WNW,293,6.3,8.5,62,0.00,,,0.00,WUHU216HW,2013-06-17 05:45:00,
2013-06-16 23:46:00,58.5,45.6,29.94,West,270,4.7,8.5,62,0.00,,,0.00,WUHU216HW,2013-06-17 05:46:00,
2013-06-16 23:50:00,58.5,44.7,29.94,West,270,8.7,8.7,60,0.00,,,0.00,WUHU216HW,2013-06-17 05:50:00,
2013-06-16 23:51:00,58.7,45.3,29.94,West,270,6.3,8.7,61,0.00,,,0.00,WUHU216HW,2013-06-17 05:51:00,
2013-06-16 23:54:00,58.7,45.3,29.94,West,270,6.3,8.7,61,0.00,,,0.00,WUHU216HW,2013-06-17 05:54:00,
2013-06-16 23:55:00,59.4,45.5,29.94,NNE,23,4.0,8.7,60,0.00,,,0.00,WUHU216HW,2013-06-17 05:55:00,
2013-06-16 23:56:00,59.4,45.1,29.94,NNE,23,3.8,8.7,59,0.00,,,0.00,WUHU216HW,2013-06-17 05:56:00,